GFSFLT1_700_rhum_000.txt.gz
RH
6 6 6 7 8 8 9 10 11 11 12 14 16 16 16 16 18 19 19 19 19 18 18 17 17 18 19 18 18 19 19 20 20
6 6 7 8 8 9 10 11 12 13 15 16 16 16 17 19 20 20 19 20 20 19 19 20 19 21 18 20 20 19 18 18 18
6 6 7 8 8 10 10 12 13 15 16 17 16 18 19 20 20 20 20 21 21 20 20 20 21 24 23 22 21 19 18 17 16
7 7 7 8 9 10 12 13 16 17 18 18 19 20 20 21 22 21 21 22 22 23 22 22 20 21 22 24 22 21 20 19 16
7 8 8 8 10 11 13 15 17 18 19 20 21 21 22 23 23 23 22 24 24 26 24 24 23 23 23 23 24 23 23 23 21
8 8 8 9 10 12 14 16 18 20 20 22 22 23 24 25 24 24 24 25 24 26 26 26 25 24 25 23 22 24 23 23 21
9 9 9 9 11 13 14 17 20 21 22 23 23 25 26 26 26 26 26 27 26 25 27 27 27 26 25 24 26 27 25 25 23
11 11 11 11 11 13 15 17 20 21 22 23 24 26 27 27 28 28 28 28 28 27 25 26 27 28 27 27 27 28 27 27 27
12 13 13 12 13 14 15 17 19 21 22 24 25 28 28 28 29 28 28 30 28 28 27 27 28 28 28 28 28 28 29 31 35
13 14 15 15 14 14 16 17 20 22 23 23 24 26 27 28 29 29 30 29 29 28 28 28 28 28 28 29 29 29 30 30 33
15 16 18 18 16 14 15 17 19 22 24 24 24 25 26 27 28 29 30 31 28 28 27 28 28 28 28 28 29 30 31 32 33
16 16 18 20 20 18 15 16 19 21 24 25 25 25 26 26 27 28 29 30 29 28 28 27 27 27 27 28 30 31 33 34 34
16 17 19 20 20 22 21 17 18 20 22 25 26 26 26 26 26 27 28 28 30 28 27 27 26 27 27 28 30 30 33 35 36
13 15 18 21 20 21 22 22 20 20 21 23 26 26 25 25 26 26 28 28 28 27 25 26 27 28 28 30 30 32 36 35 37
15 18 19 20 21 21 22 23 23 21 21 22 23 25 27 26 26 26 28 28 27 27 25 26 27 29 31 32 32 36 38 39 40
17 20 22 22 23 23 23 23 23 23 22 20 22 23 24 25 25 27 27 27 27 26 26 27 29 31 32 33 35 36 40 41 49
21 22 23 24 24 24 24 24 25 26 25 21 22 22 22 22 24 25 25 26 26 26 27 28 30 32 32 33 33 36 41 54 47
22 22 25 27 28 29 28 25 24 25 27 26 24 22 20 21 23 24 24 25 26 27 28 29 31 33 33 34 37 46 59 50 56
21 24 28 27 27 26 28 29 27 26 26 28 26 24 24 24 22 23 26 27 28 28 28 30 33 35 36 39 47 57 56 56 52
20 28 27 26 26 25 24 25 29 28 26 28 28 28 25 26 25 23 24 25 28 31 31 34 35 40 42 49 61 60 61 50 52

GFSFLT1_700_rhum_003.txt.gz
RH
6 6 6 6 7 7 8 9 9 10 11 12 14 15 14 14 15 18 18 18 18 17 16 16 16 15 15 12 13 13 15 16 17
6 6 6 6 7 7 8 9 10 11 12 14 15 15 14 16 18 18 18 19 19 17 16 17 18 16 15 12 12 13 13 13 14
6 6 6 7 7 8 9 10 10 12 13 14 15 15 16 18 18 18 19 19 19 18 18 17 18 17 16 12 11 11 11 12 12
7 7 7 7 8 8 9 10 11 13 14 15 15 16 18 20 19 19 19 20 20 20 20 20 19 18 18 17 14 12 12 13 12
8 8 8 8 8 9 10 11 12 14 16 16 16 18 20 21 20 20 21 21 21 21 21 22 23 22 20 20 18 17 16 15 15
8 8 8 9 9 10 11 12 14 16 17 17 18 20 21 22 22 21 21 22 22 23 22 22 23 24 23 22 22 21 20 19 18
8 9 9 10 10 10 11 12 14 17 19 20 21 22 22 22 23 23 23 22 22 24 24 23 24 24 23 24 23 24 23 24 23
11 11 11 11 11 11 12 13 14 17 19 20 22 23 23 24 25 24 24 23 24 24 24 25 24 24 24 24 24 24 24 26 26
12 12 13 13 13 13 13 14 15 17 20 21 22 24 24 24 25 25 26 25 24 25 24 25 25 26 25 25 26 26 24 25 26
13 13 14 16 16 16 14 15 16 17 20 22 22 24 25 26 25 25 26 26 25 25 25 24 25 26 26 26 26 26 27 27 28
13 13 14 14 14 16 18 16 16 17 18 21 23 24 25 26 26 27 26 26 27 27 26 25 24 25 26 26 28 28 28 29 30
12 14 15 16 14 16 19 20 19 17 18 19 22 24 25 24 25 26 26 25 26 27 27 26 26 26 26 26 28 29 29 29 31
12 13 16 17 16 17 19 21 22 22 20 19 20 23 26 26 26 26 26 26 26 25 26 27 26 26 26 28 29 30 30 31 31
11 12 13 14 17 19 20 21 22 23 23 23 21 21 22 24 26 26 26 26 27 27 25 26 27 27 26 27 28 30 32 33 33
19 15 12 14 18 20 22 23 23 23 23 25 24 23 21 22 23 26 27 27 28 27 26 26 25 26 27 28 30 32 33 33 34
27 14 13 17 21 22 24 25 26 25 25 25 26 26 25 22 21 22 23 25 27 28 26 25 24 25 27 29 31 32 32 33 35
24 20 17 20 22 23 26 28 28 29 28 26 26 26 26 24 23 21 22 24 24 25 26 26 26 26 28 28 31 32 32 35 40
25 23 20 19 22 25 28 26 26 25 27 28 28 27 25 27 25 24 22 24 25 25 26 26 26 27 29 30 31 31 34 40 52
29 27 23 20 21 24 28 27 26 26 25 27 27 28 29 33 33 29 25 22 25 28 29 30 30 29 30 32 32 34 38 47 56
28 27 27 22 19 26 29 28 30 31 31 30 30 29 30 30 30 30 31 30 26 34 36 37 34 33 34 35 37 39 44 60 64

GFSFLT1_700_rhum_006.txt.gz
RH
6 6 6 6 7 7 7 8 8 9 10 11 13 13 13 13 14 17 18 17 18 17 13 13 14 12 11 11 12 13 13 12 14
6 6 6 6 7 7 8 8 9 10 10 11 14 14 13 14 16 18 17 17 18 16 14 14 13 12 11 10 10 10 11 11 12
8 8 7 8 7 8 8 8 9 10 11 13 15 15 14 15 18 18 17 18 19 17 15 15 14 13 12 10 10 10 11 11 12
9 9 8 8 8 8 8 9 9 10 12 13 14 14 14 16 18 18 18 19 19 18 18 17 16 15 15 12 11 12 12 12 13
9 9 8 8 8 8 9 9 10 11 12 14 14 14 15 16 18 19 18 19 20 20 21 20 18 16 17 17 15 15 14 14 15
9 8 7 8 9 10 10 10 11 12 13 14 15 15 16 16 18 19 19 20 21 20 21 20 20 20 19 18 19 20 19 18 18
8 8 9 10 10 11 11 11 12 13 14 15 16 17 16 17 18 19 20 21 22 22 22 22 22 22 22 22 22 21 21 21 22
8 8 10 11 12 12 13 13 12 13 14 16 18 19 18 18 19 20 21 22 23 23 23 23 23 24 24 24 25 25 25 24 23
8 10 11 12 13 14 15 15 14 13 14 14 17 19 20 19 20 20 21 22 23 24 24 24 23 24 24 25 25 26 26 27 26
10 10 12 13 13 14 15 16 16 16 15 15 16 19 21 22 22 22 22 24 22 23 24 24 24 24 24 24 25 25 26 26 27
14 13 14 15 16 16 16 16 17 18 19 17 16 17 19 22 23 23 24 24 24 24 25 26 26 26 25 25 26 26 26 27 28
15 13 14 16 15 13 14 17 18 20 21 21 22 20 18 20 22 24 25 25 25 26 26 27 27 27 26 25 25 26 26 27 28
24 18 14 12 11 12 14 18 20 22 22 22 23 24 24 21 20 21 24 26 26 26 26 27 28 27 28 27 26 26 27 28 30
22 21 15 13 10 10 15 19 21 23 24 24 25 24 24 26 25 23 21 22 24 27 28 28 28 29 29 30 30 28 27 29 30
27 29 28 20 16 13 15 20 22 24 26 26 27 27 27 26 26 27 27 24 22 23 24 27 28 29 29 30 31 30 29 31 31
28 38 30 27 25 20 18 20 23 26 27 27 27 28 27 26 26 26 28 28 27 24 23 24 24 26 28 28 28 31 31 32 32
37 41 43 37 28 25 22 20 22 25 29 28 26 24 24 23 26 28 27 26 29 28 26 24 25 25 25 26 27 30 32 35 34
46 40 38 42 39 34 29 26 24 25 30 28 28 29 29 28 26 24 25 26 27 28 30 28 26 29 30 31 31 34 37 35 35
43 41 36 39 36 33 31 30 24 24 30 29 30 32 32 31 31 28 26 26 28 30 32 36 32 35 34 34 36 38 40 38 39
40 34 35 34 35 33 31 31 25 25 31 30 32 33 34 34 34 32 29 29 27 28 32 31 34 34 37 36 38 41 44 42 43

GFSFLT1_700_rhum_009.txt.gz
RH
7 7 7 7 7 7 8 8 8 8 8 9 10 11 12 12 12 16 18 16 16 17 14 12 12 12 9 8 7 6 8 9 10
6 7 7 7 7 8 8 8 8 8 9 10 11 12 12 12 14 16 18 17 16 17 14 14 14 12 10 9 8 7 6 7 8
8 8 8 8 8 8 7 8 9 9 10 11 12 13 13 13 14 17 18 17 17 17 15 15 15 14 12 10 9 9 9 9 8
8 8 9 8 7 7 8 9 10 10 10 12 13 14 14 15 15 17 19 18 18 19 18 17 17 16 15 14 12 11 11 12 11
7 9 9 7 7 9 10 10 11 11 11 12 14 15 15 15 15 18 19 19 19 20 19 19 18 18 17 16 16 15 14 14 14
9 9 8 7 9 10 11 12 12 12 12 12 13 14 14 15 15 17 19 20 20 20 21 21 21 20 21 20 20 20 19 17 16
10 9 8 9 10 11 12 13 13 13 13 13 14 15 15 15 15 16 18 19 21 21 22 22 22 22 23 24 24 24 23 23 22
11 9 9 10 11 12 13 14 15 14 14 14 14 15 16 16 17 17 18 19 20 22 23 23 23 23 24 24 25 25 25 24 25
13 11 10 12 12 13 13 14 15 16 16 16 15 15 16 16 18 19 19 20 20 21 22 23 24 24 24 25 25 25 26 26 25
18 16 13 13 14 13 14 14 14 16 17 18 19 18 17 17 18 19 21 22 23 22 22 23 24 24 25 26 26 27 26 27 28
19 19 15 10 9 10 11 12 14 17 18 20 22 22 22 22 20 19 20 22 24 25 24 24 24 25 26 26 26 26 27 27 28
13 15 18 15 10 9 10 11 13 17 20 21 22 23 23 23 24 25 23 21 21 23 26 26 27 27 27 27 27 27 28 29 29
48 31 18 21 16 15 14 14 13 16 20 22 24 25 26 26 26 26 26 26 25 23 22 24 28 29 29 29 29 29 29 30 30
53 53 44 34 39 30 29 23 18 16 20 23 25 27 27 27 26 26 27 26 27 28 27 24 23 25 29 31 30 30 31 31 31
54 54 56 43 46 47 42 33 31 26 22 24 25 28 28 25 24 24 24 25 27 28 29 30 28 25 24 25 27 29 30 32 31
54 56 55 52 47 43 42 42 35 27 25 25 24 27 28 27 27 27 26 25 25 26 27 27 27 27 26 25 25 25 25 26 27
49 52 46 47 46 42 38 42 41 36 32 30 30 25 28 28 30 29 29 28 28 26 27 28 28 31 32 29 28 28 28 28 28
48 50 48 49 45 43 37 38 39 37 36 33 33 28 30 30 30 30 31 31 30 29 28 27 29 32 35 36 32 31 32 33 34
42 45 48 45 44 35 36 36 36 36 36 36 30 29 32 32 31 32 34 35 34 34 34 32 32 30 32 36 35 32 35 38 39
31 32 31 30 30 31 34 34 35 34 34 33 29 28 32 33 34 35 34 37 37 38 38 34 36 38 34 37 46 38 40 44 48

GFSFLT1_700_rhum_012.txt.gz
RH
7 7 7 7 7 8 8 8 8 8 9 9 10 11 12 12 13 14 18 18 17 17 16 13 12 12 10 8 7 7 6 6 6
6 7 8 8 8 8 8 8 8 9 10 10 10 11 12 12 14 15 18 18 18 18 17 14 14 13 12 11 9 8 8 8 8
7 8 8 8 9 8 8 8 9 10 11 11 11 12 12 12 13 14 18 19 18 18 18 17 16 15 14 13 12 11 10 10 9
6 7 8 9 9 8 8 9 10 12 12 12 12 12 12 13 13 15 17 19 19 19 20 19 18 17 15 15 14 15 14 14 12
6 7 9 9 8 8 9 11 12 12 13 12 12 12 13 14 14 16 17 18 20 20 20 21 20 20 18 18 17 17 17 17 18
8 9 10 9 9 10 10 11 13 14 14 13 13 13 14 15 16 17 17 18 19 20 21 21 22 22 21 20 20 20 20 20 20
12 11 10 10 10 11 11 12 13 14 15 14 14 14 14 15 17 17 19 19 19 20 22 22 22 23 23 23 23 23 24 23 23
15 13 12 11 10 11 12 13 13 14 16 16 16 16 16 16 16 17 19 21 21 21 21 22 22 23 24 24 24 25 25 25 26
19 19 18 16 12 11 12 15 14 14 16 17 19 19 19 19 18 17 18 20 22 22 22 22 23 24 24 25 25 26 26 27 27
15 15 18 19 16 13 13 15 16 16 16 18 20 21 22 23 23 22 21 20 20 23 24 24 25 24 25 25 25 26 26 27 28
41 37 21 16 20 18 15 15 15 15 16 18 20 21 22 23 24 24 24 24 24 22 21 22 24 26 26 26 26 26 27 27 28
47 49 52 53 31 29 31 33 27 25 23 17 18 21 23 25 26 27 27 27 26 26 26 24 23 24 26 27 27 28 28 28 30
54 54 54 54 55 48 36 46 42 34 31 25 21 22 24 26 28 28 28 28 29 28 28 28 28 26 24 24 24 27 29 30 30
52 53 54 54 54 56 52 42 45 45 40 32 28 26 24 25 28 28 26 25 25 26 28 29 30 30 30 28 25 25 28 30 32
52 54 54 54 56 56 52 50 47 41 42 43 40 33 28 27 25 28 28 28 28 27 27 27 29 30 30 32 32 29 26 26 27
49 51 48 49 54 50 48 48 46 43 39 43 41 38 36 30 24 26 29 30 31 31 30 29 28 28 30 31 33 33 32 30 28
46 46 45 45 50 51 49 49 48 45 42 39 42 40 32 30 28 26 30 30 32 32 32 33 30 30 28 29 32 34 34 34 29
44 44 42 40 40 45 48 48 46 43 37 37 39 42 38 37 29 24 29 31 31 33 36 36 36 35 34 34 34 33 34 37 36
40 33 30 29 30 30 31 32 31 32 32 37 35 36 37 47 44 27 27 32 32 34 36 37 38 38 38 38 38 40 39 38 44
28 27 26 26 26 27 27 29 33 35 36 37 38 35 33 35 43 41 28 32 33 35 36 37 39 40 40 41 44 46 44 39 43

GFSFLT1_700_rhum_015.txt.gz
RH
7 7 7 8 8 8 9 8 8 8 9 10 11 11 11 12 12 12 13 16 18 18 17 15 13 12 12 10 9 7 6 6 6
6 7 8 9 9 9 9 8 8 9 10 11 11 11 12 12 13 12 14 16 18 18 18 17 15 14 13 12 10 9 8 8 8
6 7 8 8 9 9 8 8 9 10 11 12 12 12 13 13 13 13 14 16 18 19 19 19 18 16 15 14 12 11 11 10 11
6 6 7 7 9 9 8 9 10 11 12 13 12 13 13 14 14 14 14 16 18 20 20 20 20 20 19 17 16 14 13 13 13
6 6 8 10 10 9 9 10 11 12 13 13 13 13 13 14 14 15 16 17 18 20 21 21 22 22 22 21 20 19 18 17 16
10 10 11 10 10 10 11 11 12 13 14 15 14 14 14 14 15 16 18 18 19 20 21 22 23 23 23 23 23 22 22 21 21
15 14 14 12 11 11 11 12 13 14 15 16 16 16 15 15 16 16 18 20 21 21 21 22 22 23 24 25 25 25 24 25 25
18 20 21 20 18 15 14 16 17 17 16 17 18 18 18 18 18 17 17 18 19 21 22 23 24 24 25 25 26 26 26 26 26
24 19 18 21 23 22 17 16 17 18 20 20 19 20 21 22 22 22 22 21 20 20 21 22 24 25 26 26 26 26 26 26 27
41 43 43 33 20 21 20 18 18 18 18 18 18 20 21 22 23 24 24 24 24 24 22 22 22 24 25 27 28 28 28 28 28
51 50 52 54 54 50 36 35 41 41 39 34 31 23 22 22 23 25 26 27 26 26 26 26 25 24 23 24 26 29 30 30 30
54 54 54 55 55 55 56 56 45 43 47 44 41 36 30 22 23 26 27 29 29 30 29 29 29 28 27 25 24 25 27 28 31
51 52 53 53 54 54 55 56 57 51 44 45 46 45 36 28 25 26 27 28 30 30 29 28 30 31 31 30 29 28 26 26 37
50 51 52 54 55 54 55 57 58 53 49 49 45 40 42 39 34 28 26 26 29 29 28 28 28 28 30 32 33 33 32 30 28
48 45 43 49 52 47 49 52 54 48 47 49 43 41 36 36 35 32 30 27 26 29 30 30 31 32 31 30 31 33 32 34 35
45 44 43 44 45 45 43 45 52 52 50 52 50 48 43 36 33 38 35 33 33 28 30 32 33 33 33 33 32 32 34 34 35
41 44 44 44 44 44 45 45 43 46 51 54 56 45 34 28 30 32 34 35 37 31 30 32 33 36 38 36 38 36 33 32 33
39 42 42 42 40 34 32 32 34 36 39 42 59 66 58 47 34 30 29 30 32 32 28 32 32 34 37 38 38 39 40 40 37
35 34 34 32 32 31 30 31 31 31 30 33 47 60 78 96 95 55 39 30 30 31 26 27 33 34 35 37 38 39 40 41 42
40 40 42 43 44 45 46 44 44 44 42 42 45 51 56 55 90 66 65 96 53 37 30 30 33 34 35 36 37 40 42 43 49

GFSFLT1_700_rhum_018.txt.gz
RH
7 7 7 8 9 9 9 9 8 8 9 10 12 12 12 12 12 12 12 13 16 18 18 18 17 14 12 11 10 9 8 7 6
6 6 7 8 8 9 9 9 8 8 10 12 12 12 12 12 13 13 13 14 16 18 18 19 19 18 15 14 13 12 10 9 8
5 6 6 7 8 9 10 8 8 10 11 12 13 12 12 13 14 14 14 14 15 17 19 19 20 20 19 17 16 15 13 12 12
6 6 6 7 8 10 9 8 9 10 12 13 13 13 13 13 15 15 15 15 15 17 19 20 20 20 21 21 19 18 18 17 16
6 7 8 10 10 10 9 10 11 12 12 14 14 14 14 14 14 16 16 16 16 17 18 20 21 22 22 23 23 22 22 21 21
14 14 13 13 12 12 12 12 13 13 14 15 15 15 15 14 15 15 17 18 18 18 19 21 22 23 23 24 24 24 24 24 24
15 17 18 18 17 16 14 14 15 15 16 16 16 17 17 17 16 16 17 18 19 20 21 22 22 23 24 24 25 25 26 26 26
20 16 16 18 20 21 19 17 15 16 16 18 18 18 19 20 20 20 19 19 19 20 21 22 23 24 24 25 26 25 26 26 27
39 39 39 30 21 20 22 23 21 18 17 18 18 19 20 22 22 22 23 23 23 23 22 22 21 22 24 25 26 26 27 27 27
51 51 50 52 52 53 49 37 31 32 32 32 29 29 28 23 21 21 23 23 24 25 25 25 25 24 24 23 24 26 28 29 29
54 55 56 56 56 55 56 56 56 56 48 43 48 47 44 39 32 22 21 24 26 27 27 28 28 28 27 26 39 34 27 28 29
52 52 53 54 54 54 55 55 56 57 57 56 45 44 48 48 43 33 26 22 25 27 28 28 29 29 30 32 31 31 50 56 59
56 52 46 48 50 52 53 53 53 52 52 53 45 36 38 36 36 37 36 31 26 25 26 29 30 29 29 31 32 33 33 32 31
42 39 39 42 42 40 43 46 48 46 46 49 51 44 40 41 38 35 33 34 35 31 26 26 29 32 32 31 31 30 32 34 34
30 34 39 44 44 45 46 48 50 48 47 48 46 50 49 46 46 48 47 44 35 36 36 33 30 29 32 33 32 31 31 30 31
39 38 38 42 45 47 49 49 48 47 46 44 40 41 41 43 40 40 40 39 38 36 37 38 36 34 29 31 32 34 33 32 32
38 40 41 43 42 42 40 37 33 32 33 34 35 32 30 28 28 28 27 30 34 34 35 36 38 42 39 31 33 35 37 37 35
33 34 35 36 37 38 39 40 43 42 43 44 47 47 47 49 42 43 40 39 37 37 50 65 46 40 43 40 38 38 37 40 41
38 39 38 38 38 38 38 37 37 37 37 38 40 45 52 68 60 60 91 71 91 68 75 69 82 80 54 45 41 47 43 43 49
40 40 42 43 44 44 44 43 42 41 39 38 37 37 39 45 53 42 47 55 75 67 70 64 81 78 75 96 80 64 62 62 68

GFSFLT1_700_rhum_021.txt.gz
RH
7 7 7 7 9 9 9 10 9 8 8 10 11 12 12 12 12 12 12 12 13 16 17 18 18 18 16 14 12 11 10 8 7
6 6 7 8 8 8 9 10 9 7 8 10 12 13 12 12 12 13 13 13 14 15 17 18 19 19 19 18 15 14 12 11 10
6 6 6 7 7 8 9 10 9 8 9 11 12 13 13 12 13 13 14 14 14 16 17 18 19 20 20 20 20 17 15 14 13
4 5 5 6 7 8 9 10 9 10 10 11 12 14 14 13 13 14 15 15 15 16 17 18 19 20 21 22 22 21 19 18 17
9 9 9 10 10 11 11 10 10 10 11 12 13 14 14 14 14 14 15 16 17 16 16 18 19 20 21 22 22 23 23 22 21
13 14 14 14 14 13 12 12 11 12 13 13 14 14 15 15 15 15 16 16 17 18 18 18 19 19 20 21 22 23 24 24 24
18 17 19 20 21 21 20 18 17 15 16 16 17 17 17 17 17 17 16 16 17 18 18 19 20 21 21 22 22 23 24 25 25
36 34 30 25 22 22 22 24 24 21 19 19 20 21 21 20 20 20 20 19 19 18 18 18 19 20 20 22 23 23 23 25 26
48 48 47 49 50 52 49 40 32 28 29 27 25 25 25 24 21 20 22 22 23 23 23 23 22 22 21 21 21 23 24 25 26
54 55 55 56 55 55 55 55 56 55 54 49 40 36 36 32 27 21 20 20 20 22 23 24 25 25 25 25 25 24 23 24 25
52 53 54 55 55 55 54 54 52 50 52 53 56 55 50 35 33 30 24 22 20 20 21 23 25 28 28 29 29 29 28 46 41
50 48 50 51 48 45 45 46 47 47 48 46 48 49 52 49 37 30 32 34 34 33 28 26 24 26 28 30 32 32 33 34 33
33 34 39 44 42 43 46 45 43 41 45 47 45 44 46 49 51 44 37 38 38 36 37 42 41 34 28 28 31 33 34 33 33
37 38 41 43 44 49 50 49 48 48 47 48 44 44 43 41 41 45 50 51 50 50 49 46 41 40 41 38 34 32 32 34 33
55 54 51 48 49 47 46 46 47 46 43 38 33 31 29 29 28 28 30 32 35 41 48 51 49 47 42 44 46 44 39 35 34
48 46 44 39 37 36 36 36 37 38 40 39 38 36 35 36 37 37 36 35 35 35 34 37 42 43 45 47 51 50 49 47 37
38 39 42 43 43 43 40 38 36 36 37 37 36 34 33 33 32 32 32 33 35 38 42 45 45 45 50 57 56 53 56 55 46
36 37 37 38 39 40 41 42 43 42 42 43 44 41 39 38 37 37 37 36 36 36 36 41 51 70 77 88 88 88 81 67 67
42 44 46 49 50 50 50 50 49 48 48 47 48 49 49 47 39 40 40 40 40 39 38 36 36 39 54 84 84 92 99 99 95
53 54 55 54 52 51 50 49 50 50 50 49 48 47 48 50 50 41 43 42 44 42 42 41 40 41 48 52 60 68 68 98 100

GFSFLT1_700_rhum_024.txt.gz
RH
7 8 8 7 8 9 10 10 10 10 8 8 10 11 12 12 12 13 12 12 12 12 14 15 16 17 17 16 13 12 11 9 8
6 6 6 7 8 8 8 9 9 10 8 8 10 12 12 12 12 12 13 12 12 12 13 15 16 17 18 18 18 15 13 11 10
6 6 6 6 7 7 8 8 9 10 9 9 10 11 13 13 13 13 13 13 13 13 13 14 15 16 17 18 19 19 17 15 13
5 5 6 6 6 7 7 9 9 10 9 9 10 11 12 14 14 13 13 14 14 14 14 14 14 16 18 18 19 20 20 19 17
11 11 11 11 11 11 12 12 12 12 12 11 11 12 13 14 14 14 14 14 14 15 15 15 15 16 17 18 19 20 21 21 21
16 16 16 16 16 16 15 15 15 14 15 15 15 15 15 15 16 16 15 15 15 15 16 16 16 17 17 18 18 19 20 21 22
26 23 20 20 21 22 23 24 23 22 20 19 18 18 18 18 18 17 18 17 16 16 17 17 17 18 18 18 18 19 20 20 21
39 38 38 40 40 39 37 32 28 25 24 24 24 21 19 18 18 18 18 19 20 20 19 19 18 18 19 19 19 20 21 21 22
48 47 48 49 48 48 44 44 46 46 47 48 46 36 30 27 24 19 16 18 17 19 21 22 23 23 22 22 22 21 21 21 22
49 49 49 50 51 51 51 51 49 49 51 50 50 51 53 53 51 44 33 27 26 22 19 19 21 22 24 24 25 25 25 25 24
43 46 49 49 48 48 49 50 49 48 49 49 52 52 51 50 50 50 50 50 43 35 34 32 29 25 23 24 26 28 30 30 30
28 33 41 45 48 53 55 56 47 46 47 45 44 44 45 46 45 45 45 45 46 47 39 40 39 39 39 38 34 29 28 31 34
37 38 40 42 46 47 48 48 45 46 47 46 46 47 46 45 45 43 43 43 42 43 49 50 50 51 50 46 41 39 39 36 32
49 53 54 53 53 52 50 48 45 42 41 40 38 37 34 33 32 32 32 32 31 30 32 37 46 57 60 61 59 55 53 50 47
58 59 57 51 46 41 38 39 40 40 39 37 35 35 35 35 35 34 34 34 35 36 38 39 37 35 35 42 60 65 61 58 57
45 45 42 41 40 40 38 37 37 39 42 42 40 39 37 33 35 34 33 34 34 34 34 34 36 37 40 46 51 59 69 69 60
37 40 40 39 40 42 45 46 46 46 46 45 41 36 29 32 34 35 32 32 33 34 34 37 38 39 56 54 49 68 86 90 100
39 41 42 44 46 48 48 48 46 44 42 42 44 42 38 31 29 26 28 29 32 33 36 39 40 41 40 42 49 55 66 98 100
45 47 50 51 51 48 45 42 37 33 32 32 34 37 41 41 27 29 29 29 31 32 33 35 37 41 43 44 42 43 91 75 77
48 50 49 46 41 34 27 24 25 27 29 32 34 34 35 36 37 26 29 29 23 24 22 22 20 22 24 30 37 42 46 63 80

GFSFLT1_700_rhum_027.txt.gz
RH
7 8 8 8 8 8 8 10 10 10 10 10 8 8 10 12 12 12 12 12 12 12 11 12 13 14 15 15 15 14 10 8 7
6 6 7 7 7 8 8 9 9 9 9 10 9 8 10 12 13 13 12 12 12 12 12 11 12 13 15 16 16 16 15 12 9
6 6 6 6 7 7 8 8 8 9 9 9 9 9 10 12 13 13 13 13 13 13 13 12 12 13 14 15 16 17 17 17 15
6 6 5 6 6 7 8 8 9 10 10 10 10 10 11 12 13 14 14 14 13 14 14 14 13 13 13 14 15 16 17 18 18
13 12 12 12 12 12 13 13 13 13 13 13 12 12 12 12 12 14 14 15 14 14 14 15 15 15 14 14 15 15 16 17 18
22 19 18 18 18 19 19 18 18 18 18 17 16 16 15 14 14 14 15 16 16 16 15 15 15 16 16 16 16 16 16 17 17
30 29 29 28 27 26 26 25 25 24 23 21 20 19 18 17 16 15 15 16 16 17 17 18 17 17 17 17 17 18 18 18 18
36 34 34 35 34 34 37 39 40 39 40 42 44 44 44 43 40 36 31 28 24 19 18 19 20 21 21 20 19 19 18 19 19
43 41 39 40 38 39 40 45 46 49 49 51 51 52 52 50 48 44 43 45 51 51 45 33 25 21 20 22 24 24 24 23 22
39 42 44 45 44 46 47 48 47 47 49 46 44 44 44 44 43 42 43 41 44 49 53 52 48 34 31 30 26 24 24 26 27
30 36 40 40 44 46 48 49 47 46 46 44 47 46 45 44 44 43 40 42 41 42 47 50 54 52 40 34 34 35 35 29 26
39 42 45 48 50 54 55 50 48 48 45 41 40 39 43 47 47 46 44 42 40 37 35 41 47 51 55 50 44 43 41 39 38
53 56 59 59 67 70 63 55 48 44 40 35 33 34 35 35 35 35 34 34 35 34 33 32 31 33 39 48 55 59 58 62 61
65 65 68 74 69 66 55 44 39 38 38 38 36 36 36 38 38 39 40 39 38 37 36 36 35 36 38 40 41 43 48 54 61
70 66 66 58 52 46 40 40 40 39 39 41 41 40 37 34 33 31 28 30 31 31 32 33 33 33 34 36 39 50 58 57 51
46 43 40 39 38 38 38 40 42 42 41 36 30 30 27 25 32 24 25 23 23 26 28 30 36 40 44 39 38 78 79 72 73
33 35 37 39 42 44 44 41 36 34 34 30 24 15 10 13 19 21 22 19 18 20 21 24 26 30 33 34 33 34 46 50 59
44 44 43 40 38 37 38 37 33 21 15 15 19 17 16 14 15 17 18 20 21 21 21 20 22 23 23 24 25 26 30 50 47
41 41 41 40 40 38 32 20 16 17 18 20 23 27 29 29 22 22 24 24 25 25 25 24 24 24 24 22 19 18 15 14 19
47 43 34 27 25 24 24 20 20 23 26 29 31 30 29 31 33 25 28 23 19 14 14 11 12 13 20 25 26 24 18 13 10

GFSFLT1_700_rhum_030.txt.gz
RH
7 7 8 8 9 8 8 8 9 10 10 10 10 10 9 9 10 11 12 12 12 12 12 12 11 11 11 12 14 15 15 14 10
5 6 6 7 7 7 7 8 8 9 9 9 9 10 9 9 10 11 13 13 13 13 13 13 12 12 12 12 13 14 15 15 15
4 5 5 6 6 6 7 7 8 8 9 9 9 10 10 10 10 11 12 13 14 13 13 13 13 13 13 12 13 13 14 15 15
14 11 9 8 8 7 7 8 9 10 11 11 12 12 11 11 11 11 12 13 14 14 14 14 14 14 14 14 14 14 14 14 15
23 21 19 17 15 15 15 15 16 16 17 17 18 17 17 16 15 14 15 15 15 15 15 16 15 15 15 15 15 15 15 15 15
26 27 26 25 26 26 26 27 28 28 28 29 28 29 28 25 23 21 18 17 16 17 17 18 18 18 18 17 17 16 16 16 16
25 31 30 28 28 29 32 33 32 32 34 38 36 29 28 29 28 25 31 38 43 42 38 31 24 20 19 20 21 20 19 18 18
30 36 38 36 36 38 40 43 42 41 39 37 36 34 32 31 34 35 37 39 41 45 48 46 46 45 39 28 23 21 23 24 23
27 35 37 38 38 39 39 41 41 38 39 41 39 37 34 38 37 39 39 42 40 42 46 50 50 48 48 51 46 34 32 26 24
31 32 34 33 34 35 36 38 40 40 39 40 38 38 37 37 35 37 37 40 42 43 44 45 46 46 45 45 49 52 41 38 39
40 43 43 44 44 47 49 50 47 47 41 37 40 39 38 37 39 42 42 41 40 37 36 36 36 36 38 41 50 61 67 56 43
50 55 56 56 64 68 62 58 48 42 38 36 31 31 32 32 34 35 34 35 36 36 36 36 36 35 35 38 39 38 47 57 67
57 55 63 68 67 64 56 47 40 34 32 32 34 34 36 38 39 40 39 38 36 36 35 35 36 44 39 38 37 37 40 45 59
58 61 61 56 50 43 40 36 35 35 36 38 40 41 38 32 30 28 24 25 27 27 25 26 28 28 32 40 67 83 79 72 61
51 48 44 38 33 33 35 37 40 41 41 36 28 24 21 17 14 11 11 11 12 15 17 20 22 22 24 23 31 42 64 67 69
32 31 31 34 38 41 43 41 36 34 32 22 13 9 8 9 10 12 13 14 16 23 25 22 22 21 21 22 24 24 26 27 31
37 41 44 44 42 40 38 33 22 15 14 10 9 8 8 10 12 13 15 14 15 14 14 16 18 21 22 24 24 24 23 22 21
45 45 45 44 40 33 22 14 13 11 13 13 15 14 13 9 10 9 11 11 10 10 10 10 9 9 8 8 9 10 12 18 24
49 46 44 37 22 12 11 12 12 12 12 14 18 22 26 23 11 9 9 9 9 8 7 6 4 4 4 4 3 3 3 4 5
48 43 32 16 12 11 10 11 12 15 16 18 19 18 15 12 10 9 9 8 7 6 6 5 5 5 4 4 4 3 3 3 3

GFSFLT1_700_rhum_033.txt.gz
RH
6 7 7 8 8 9 8 8 8 8 9 10 9 9 9 10 9 9 10 11 13 13 13 13 13 12 12 12 12 13 13 14 14
5 5 6 6 6 6 6 6 7 7 7 8 8 8 9 9 10 10 10 11 12 13 14 13 13 14 13 13 13 13 13 14 14
18 14 10 8 7 7 7 7 8 8 9 10 11 12 12 12 12 13 12 13 13 14 14 14 14 14 14 15 14 14 14 14 14
27 23 21 20 18 18 17 17 17 17 17 18 18 18 18 18 17 17 16 17 16 16 16 16 16 16 15 16 16 16 16 16 16
23 25 24 25 26 26 28 29 30 31 32 32 32 32 31 29 27 27 26 28 24 20 20 20 20 20 20 19 18 17 17 18 18
21 25 25 27 27 29 31 31 31 33 35 34 33 33 38 36 34 37 41 40 38 37 35 34 33 30 27 23 21 22 21 20 18
24 25 26 26 27 29 33 34 33 34 36 37 36 36 34 30 32 32 33 34 33 36 39 42 42 42 45 45 42 34 25 22 22
21 24 28 30 32 32 34 38 38 35 33 32 32 31 30 30 29 29 31 34 39 40 41 42 45 45 44 43 44 46 49 43 32
28 30 32 32 32 33 34 34 35 35 35 33 30 32 29 27 27 30 32 33 36 38 42 44 45 46 48 46 45 45 47 50 52
34 35 34 35 36 35 36 35 32 30 27 26 24 24 24 26 30 32 31 30 31 31 32 32 39 51 85 79 61 61 60 66 74
41 43 42 47 46 39 30 27 27 26 25 26 28 30 32 35 36 36 36 37 38 38 38 38 39 38 42 53 54 66 70 69 74
50 49 53 50 46 43 39 32 29 29 29 32 35 36 37 38 38 36 33 31 30 30 31 29 30 34 46 74 94 86 72 62 56
53 57 52 47 46 39 33 31 32 34 36 38 38 38 35 31 25 20 18 16 14 14 15 16 19 22 27 34 68 72 70 49 66
55 56 50 40 34 32 34 37 40 40 38 34 28 23 17 12 8 8 8 9 10 10 12 14 15 15 14 17 18 16 17 21 64
50 43 35 33 36 41 43 43 41 37 32 21 10 8 8 8 8 8 9 11 11 12 12 12 14 17 19 20 21 21 20 18 19
35 36 40 44 45 44 43 40 32 20 10 7 8 8 8 8 9 10 10 10 12 13 14 15 15 14 13 12 12 14 15 19 20
44 47 48 48 46 42 33 20 10 8 8 8 8 8 8 9 9 9 9 7 8 8 8 8 8 8 7 7 6 6 6 6 7
50 51 49 45 39 26 13 9 8 8 8 8 9 9 10 7 7 7 7 8 8 8 9 8 7 7 6 6 6 6 5 5 5
53 51 44 33 14 9 8 9 9 8 8 8 10 12 13 10 8 8 8 8 9 9 9 8 8 8 8 8 8 7 7 6 6
52 41 27 12 9 9 9 9 9 9 9 9 9 10 11 12 10 9 9 10 10 10 10 10 10 10 9 8 7 6 6 5 4

GFSFLT1_700_rhum_036.txt.gz
RH
5 6 6 6 7 7 7 7 8 8 8 8 8 8 8 9 9 10 10 10 11 12 13 14 14 14 14 14 14 14 14 14 14
19 13 8 6 6 6 6 6 7 7 7 7 8 9 10 11 12 12 11 12 12 13 13 14 14 14 14 15 15 15 14 14 14
30 25 22 19 17 16 16 15 15 15 16 15 15 16 16 16 16 16 16 15 14 14 14 15 15 15 15 15 16 16 17 16 16
22 23 24 24 23 23 24 24 25 25 26 25 24 23 22 22 23 24 24 24 20 19 19 19 19 18 18 17 16 16 17 17 18
18 18 22 23 23 24 26 26 28 28 28 30 30 32 31 30 33 35 36 36 36 36 35 32 26 23 22 21 20 21 21 19 18
17 20 22 23 24 25 24 26 28 29 29 28 29 30 30 30 31 32 33 33 34 35 36 37 35 34 35 36 36 32 26 21 20
20 24 24 25 26 26 27 27 28 28 29 30 30 31 30 31 31 31 33 34 35 37 38 38 38 39 39 42 43 43 44 44 45
26 27 29 28 29 30 32 33 34 35 35 33 30 27 25 24 23 22 24 26 27 30 32 35 44 45 47 47 45 45 48 48 49
35 31 30 34 35 35 36 38 36 31 29 27 26 24 24 27 28 30 30 31 32 32 31 31 36 63 72 75 81 88 83 77 76
38 39 38 39 40 41 39 35 31 31 29 28 27 29 33 35 36 36 36 36 37 36 35 34 35 37 38 50 60 72 71 81 84
46 48 48 47 46 46 39 33 30 28 28 32 36 38 38 38 35 31 28 26 24 22 21 21 22 23 23 25 31 43 62 70 72
55 57 57 57 56 49 39 33 30 31 37 39 39 37 35 30 25 20 16 13 11 10 10 9 10 10 12 16 20 25 40 64 75
57 63 59 60 53 40 33 33 38 40 40 38 37 34 27 16 9 8 9 8 8 8 9 9 10 10 10 11 12 14 17 26 51
50 50 53 46 37 35 40 42 42 41 39 34 23 11 8 8 8 9 9 9 9 10 11 11 11 11 12 12 12 12 13 13 14
44 42 39 37 41 44 44 44 44 36 22 10 7 8 9 9 9 9 10 10 12 11 10 10 9 9 10 10 10 11 12 11 11
37 38 44 46 47 48 46 38 26 13 8 7 9 10 9 9 10 10 10 9 9 9 8 8 8 8 8 8 9 8 8 8 7
44 48 50 52 50 43 30 15 8 8 8 9 10 11 11 10 10 8 8 8 8 8 8 8 8 8 8 8 8 8 7 7 7
49 53 54 50 40 25 11 8 8 9 10 9 10 10 10 9 8 8 8 8 7 7 7 8 9 9 9 9 10 10 10 10 9
54 54 48 36 22 12 9 9 10 10 9 9 8 8 8 8 9 9 8 7 6 6 7 8 8 9 10 10 11 12 12 11 10
52 47 36 21 13 11 10 10 10 9 9 8 7 8 9 10 10 7 6 6 7 7 8 9 10 10 11 11 12 13 12 11 9

GFSFLT1_700_rhum_039.txt.gz
RH
12 7 6 6 6 6 6 7 7 7 7 7 8 8 8 9 9 9 9 10 10 10 12 13 13 14 14 14 14 14 14 13 14
30 25 22 18 15 12 10 8 8 8 8 9 10 11 12 13 14 13 13 13 13 12 12 12 14 14 14 14 15 15 15 15 15
28 27 26 24 22 20 19 19 18 18 18 18 19 19 19 19 19 20 20 19 18 17 17 16 15 15 15 15 15 15 16 16 16
19 18 21 23 23 24 25 25 26 26 26 27 28 29 31 30 31 32 32 33 31 28 24 22 20 19 18 19 18 17 16 16 16
17 19 20 21 21 21 21 23 23 23 24 25 25 26 26 26 28 28 28 28 27 27 27 29 30 32 30 28 25 22 20 19 19
21 22 25 26 27 26 26 26 26 26 27 28 29 30 30 30 31 31 31 30 29 30 30 31 33 36 35 33 33 33 35 36 38
32 25 26 28 30 30 29 30 32 34 35 35 34 30 28 27 26 26 27 28 29 30 33 57 74 56 60 54 42 41 44 44 43
41 36 31 33 35 34 38 40 40 40 37 34 34 31 29 28 28 28 29 30 32 32 32 31 32 47 68 82 76 80 81 80 69
45 43 38 38 43 46 49 50 46 40 36 33 30 29 30 33 35 36 35 35 35 35 34 34 34 36 38 39 67 74 74 86 90
45 44 46 47 49 52 54 49 39 33 30 28 30 35 37 36 35 32 27 24 22 21 21 20 19 20 20 25 28 33 43 64 71
47 46 45 47 51 51 51 43 34 30 30 35 37 38 36 34 31 28 22 14 9 9 8 8 8 7 9 10 13 16 19 24 29
49 50 48 50 49 50 47 37 31 32 37 37 38 38 35 26 16 9 8 8 8 9 8 8 8 8 8 9 9 9 9 10 14
46 55 54 49 50 46 37 35 39 39 39 40 38 29 17 9 8 8 9 9 9 9 9 9 9 10 10 10 10 10 10 10 11
43 46 49 45 38 36 40 41 41 42 40 31 20 10 8 8 9 9 9 9 10 10 10 11 10 10 10 9 9 8 8 8 9
40 41 37 36 40 43 43 44 43 36 21 9 8 8 9 10 10 10 11 11 11 10 9 8 8 8 8 8 8 7 7 7 8
41 38 39 43 44 48 49 43 29 14 8 8 9 10 10 11 11 11 10 9 8 8 9 9 8 8 8 8 8 8 7 8 7
41 44 46 50 51 48 36 22 12 9 9 10 12 13 13 11 10 9 8 8 9 9 8 8 7 7 7 7 7 7 7 8 8
44 51 54 52 42 29 17 11 10 11 12 12 12 12 12 12 11 9 10 9 7 6 6 6 6 7 7 7 7 8 8 9 9
51 54 51 42 36 19 12 12 13 13 13 11 10 9 9 9 11 9 6 5 5 5 5 5 5 6 7 7 8 9 10 10 11
53 53 52 48 33 15 13 14 13 12 11 10 9 9 10 10 9 6 5 5 5 5 4 4 6 8 10 11 13 14 15 15 14

GFSFLT1_700_rhum_042.txt.gz
RH
21 16 11 8 7 6 6 6 6 7 7 7 7 8 8 8 8 8 9 10 11 11 11 11 12 13 13 14 14 14 14 14 13
31 27 25 22 20 20 18 18 16 14 13 14 14 15 16 16 16 16 16 16 15 15 14 14 13 13 13 14 14 14 15 15 15
24 24 23 24 24 23 23 22 22 23 23 24 24 25 26 26 25 25 24 24 25 24 22 20 18 17 16 16 15 15 15 15 15
20 22 22 22 22 20 19 19 21 21 21 20 21 21 22 22 22 23 23 22 22 23 22 21 22 24 24 24 23 20 19 18 18
22 23 24 25 26 25 26 25 26 27 27 27 29 30 30 31 31 31 31 30 29 30 30 30 32 34 33 33 30 27 27 28 28
32 27 27 29 31 30 30 30 31 33 35 34 35 34 32 30 28 27 26 25 29 32 54 87 90 82 90 82 84 66 40 38 37
41 38 32 32 34 36 38 39 42 42 40 35 31 32 30 29 28 27 27 28 28 28 29 30 32 44 67 92 94 87 79 70 53
44 44 43 40 40 45 48 49 52 48 39 33 33 31 28 29 30 32 34 35 35 35 36 36 36 36 37 42 57 79 78 84 84
45 48 49 48 48 51 55 51 50 45 36 33 30 30 32 36 37 36 34 32 29 27 24 20 21 23 26 30 34 37 46 65 75
47 51 51 52 56 56 56 49 43 35 32 29 29 34 35 35 35 34 30 24 18 12 9 8 8 8 9 11 13 14 16 20 28
51 54 52 53 55 54 44 42 34 32 30 32 35 36 36 35 30 20 12 8 7 8 8 8 9 9 8 8 8 8 8 9 10
52 50 45 49 52 46 42 36 32 31 34 34 36 36 32 22 12 8 7 8 9 10 10 9 9 9 9 9 10 10 10 10 10
48 43 44 50 51 45 36 34 36 35 34 38 36 25 12 8 8 8 9 10 10 10 10 11 11 10 10 9 8 8 8 8 8
45 38 43 50 42 36 37 38 37 40 39 29 16 9 8 8 9 10 10 11 11 11 11 10 8 8 8 8 8 8 8 7 7
87 44 45 40 38 40 39 41 42 34 20 12 9 9 10 11 12 12 12 11 10 9 8 8 9 9 9 8 7 6 6 6 6
49 44 40 41 39 44 46 41 25 13 10 10 11 12 12 13 12 12 10 9 9 9 10 10 9 8 7 7 6 6 6 6 6
50 42 42 44 47 47 38 29 18 12 12 14 16 16 14 13 12 11 10 10 10 10 8 7 6 6 6 5 5 5 5 5 5
43 42 47 48 48 46 45 30 14 14 16 16 15 15 14 15 14 12 11 10 7 6 6 6 6 6 5 5 5 5 5 5 6
45 48 50 52 52 52 48 25 15 17 17 14 12 12 12 12 14 11 8 6 6 6 6 6 6 5 5 5 5 5 5 6 7
50 52 53 52 52 53 43 17 17 17 14 13 12 12 12 12 11 7 6 6 6 7 7 6 6 6 6 6 6 8 9 10 12

GFSFLT1_700_rhum_045.txt.gz
RH
23 19 15 12 10 8 7 7 7 7 7 7 7 7 8 8 9 11 12 13 13 13 13 12 12 12 12 12 12 13 14 14 14
31 29 26 24 22 21 19 18 17 17 16 17 17 18 18 20 21 21 20 20 20 20 20 19 18 16 15 14 14 14 14 14 14
23 22 22 23 24 23 23 23 24 25 25 25 24 24 21 21 20 20 19 19 20 20 19 20 21 22 24 22 20 18 17 16 15
21 20 20 20 20 21 22 22 23 24 24 24 25 26 28 28 29 30 29 30 30 31 31 30 31 31 30 28 27 27 25 24 22
29 24 25 26 28 28 29 30 30 30 30 30 32 34 32 31 30 27 26 23 23 25 33 78 83 83 82 79 87 68 58 43 32
38 34 29 28 31 33 35 35 36 36 37 35 33 30 27 26 29 28 27 26 26 26 26 30 44 60 74 84 86 82 83 77 74
42 42 41 38 37 39 42 43 45 44 41 34 30 32 31 29 28 29 30 32 34 35 36 35 34 34 34 41 48 65 77 83 85
43 45 47 48 46 45 46 49 49 47 43 36 34 32 29 28 32 36 37 37 37 35 33 30 32 32 37 37 38 39 45 57 77
46 47 50 52 51 52 51 51 49 46 41 36 32 30 32 36 37 37 37 36 34 30 26 22 18 16 16 19 20 22 27 32 37
49 49 50 52 52 53 52 53 48 41 36 33 32 33 32 34 35 34 30 22 14 9 8 8 8 9 9 9 9 9 9 9 11
53 53 53 55 54 52 51 51 42 35 33 36 35 35 34 34 29 19 12 8 8 8 9 10 10 10 10 10 10 10 10 10 9
55 55 53 51 46 45 43 39 35 34 35 35 33 38 31 18 10 8 8 8 9 10 10 11 11 11 11 11 10 10 9 9 8
58 55 45 38 36 38 38 35 36 36 37 40 33 22 12 9 8 9 10 11 12 12 12 12 12 11 10 9 9 9 9 9 8
79 52 37 38 39 37 37 38 38 42 35 22 13 11 10 10 12 12 13 13 13 13 12 10 10 9 9 10 10 9 7 6 6
88 98 38 39 38 40 39 42 41 32 23 14 11 12 14 15 15 14 14 13 12 11 10 10 10 10 9 7 6 5 5 4 4
100 86 40 39 39 42 46 44 41 39 25 14 14 16 17 16 15 14 13 12 11 11 11 11 9 7 6 6 5 5 5 5 5
81 46 42 40 46 48 48 50 51 45 22 16 18 18 16 14 14 14 13 12 12 11 9 7 6 6 6 6 6 6 6 5 5
96 50 41 48 50 52 51 51 52 35 18 19 19 16 15 16 15 14 14 12 9 7 6 6 7 7 8 8 7 7 6 6 6
95 45 49 52 53 52 51 51 48 22 19 20 17 16 15 15 17 15 12 8 6 6 7 8 8 9 9 8 8 7 6 6 6
46 50 54 54 56 57 53 51 42 20 20 18 16 14 14 14 14 11 8 6 6 8 8 9 9 9 9 8 7 6 5 5 5

GFSFLT1_700_rhum_048.txt.gz
RH
22 16 12 10 8 7 7 6 7 7 7 7 7 7 8 9 11 14 15 16 16 16 16 15 14 14 13 13 12 12 13 13 14
31 29 26 23 22 20 19 18 17 17 17 17 18 20 21 23 25 25 24 22 23 23 23 24 23 22 20 19 17 16 14 14 14
25 23 22 22 22 22 23 23 23 23 24 25 24 23 23 22 23 24 25 26 27 27 27 27 27 25 24 24 25 25 23 20 18
24 19 18 18 18 18 20 21 23 23 25 25 27 28 28 29 31 31 28 27 28 28 30 50 57 63 61 64 55 52 41 30 27
34 28 23 24 26 28 28 28 29 29 30 32 33 34 34 30 30 28 28 27 26 24 26 30 51 56 86 87 88 89 89 85 73
38 37 35 31 30 31 33 33 33 35 37 38 37 34 33 34 32 29 28 28 29 30 30 30 30 32 54 64 67 86 93 87 85
41 41 42 41 39 36 38 40 41 43 43 43 42 37 35 31 29 29 32 34 35 35 35 35 36 36 37 36 36 45 64 72 82
44 44 45 46 46 44 44 45 47 48 46 44 40 36 33 32 33 34 36 36 35 35 33 32 30 30 29 29 28 31 35 38 42
50 47 47 49 50 50 50 50 50 50 47 42 36 34 34 37 37 34 37 36 33 30 24 17 12 10 9 9 9 10 12 14 20
52 53 51 52 53 53 52 49 50 48 45 37 34 35 34 35 36 34 31 23 16 11 8 8 8 9 9 10 10 10 10 9 9
55 56 56 57 56 54 51 48 51 47 38 35 35 34 36 35 29 19 11 9 8 8 8 9 10 10 11 12 12 11 11 11 11
54 55 57 60 57 48 42 42 42 36 36 34 35 34 26 17 11 10 9 10 11 12 13 13 13 13 13 13 12 11 10 10 9
45 54 59 50 39 36 39 39 36 35 34 36 28 17 12 10 10 12 13 14 15 15 14 14 14 13 12 11 10 10 10 10 10
57 61 89 67 39 40 38 36 35 39 37 32 28 18 12 14 16 17 16 16 15 15 14 13 13 12 12 11 11 10 9 7 5
60 85 86 90 43 39 38 38 41 39 41 44 37 18 15 18 18 17 16 15 14 14 14 13 12 12 11 10 8 6 5 5 5
91 93 100 90 43 39 43 44 42 40 41 44 27 18 19 18 17 15 14 15 14 14 13 13 11 9 7 6 6 6 7 7 8
80 90 87 47 39 45 48 45 42 44 44 39 20 19 19 17 16 16 15 15 14 13 12 10 7 6 6 7 8 8 9 9 9
92 100 85 51 39 51 50 48 49 48 46 34 20 20 19 18 16 16 16 15 13 10 8 7 7 7 8 9 10 10 10 10 9
86 99 92 50 49 52 52 55 56 53 50 30 20 20 18 18 17 17 16 14 10 8 7 7 8 9 10 11 10 10 10 8 6
100 99 72 53 52 56 60 62 60 55 48 24 20 20 18 17 16 17 14 11 8 8 8 9 10 11 11 11 10 8 6 5 4

GFSFLT1_700_rhum_051.txt.gz
RH
26 19 14 10 8 7 7 7 8 8 8 8 8 8 8 10 12 14 17 18 19 20 20 20 19 18 16 15 14 13 13 13 13
31 30 27 24 22 20 19 18 17 17 18 19 20 21 22 23 22 20 18 17 16 18 18 19 20 20 21 22 21 20 18 16 15
27 23 22 22 22 22 23 23 23 23 22 22 21 18 18 21 24 26 27 27 26 28 28 28 28 28 26 27 27 26 23 23 23
31 24 20 20 21 22 22 23 24 24 25 26 26 27 30 29 28 24 23 22 22 22 21 22 33 49 67 82 85 84 86 80 75
35 34 28 24 25 26 27 28 28 29 29 31 32 32 31 28 27 28 30 28 26 26 26 25 26 28 29 42 74 93 88 90 90
38 37 37 36 33 30 30 31 32 34 36 36 36 35 30 29 31 28 28 26 27 28 29 33 32 32 32 30 35 50 57 72 78
44 41 41 41 41 39 38 37 38 39 39 37 40 38 34 32 30 28 30 32 32 31 31 33 33 34 33 31 31 33 34 36 45
48 46 44 44 45 45 46 44 44 44 44 43 42 38 33 32 31 31 34 34 33 33 32 33 31 28 24 21 20 21 22 22 24
48 50 49 47 47 48 50 49 49 46 46 45 41 36 33 33 33 28 34 33 32 29 23 16 11 8 8 8 8 8 8 8 8
49 49 51 52 51 51 53 53 49 46 46 44 37 34 34 32 32 30 30 24 15 10 8 8 8 8 9 10 10 10 11 11 11
50 49 50 52 54 56 54 50 47 47 45 38 34 33 32 31 24 16 13 10 9 10 10 11 12 13 13 13 13 13 13 13 12
58 54 50 53 57 59 50 42 40 43 38 36 33 34 28 21 14 11 11 12 14 15 16 16 15 15 14 14 14 13 12 12 11
63 68 51 47 56 43 34 37 40 37 35 37 35 32 31 26 16 14 15 17 17 17 16 15 15 14 14 14 13 13 12 12 11
59 64 54 45 76 59 37 37 36 35 40 38 36 35 37 29 19 17 18 17 16 15 15 15 15 15 14 14 13 13 12 11 9
60 71 64 73 79 83 42 37 35 40 39 36 37 38 32 20 18 19 18 16 16 16 16 16 16 16 15 13 11 9 7 6 6
73 73 77 85 95 85 44 38 41 39 40 42 42 40 30 22 20 19 17 17 16 16 17 16 15 14 11 9 7 6 6 7 7
88 92 92 93 88 51 40 43 44 42 48 50 49 44 33 22 20 19 18 17 17 17 16 14 12 10 8 7 7 7 8 9 10
84 97 94 100 99 61 45 46 46 51 55 55 53 44 30 21 20 20 18 17 17 16 14 11 9 8 8 8 9 10 11 11 11
78 94 96 98 98 89 47 50 54 61 60 58 54 44 23 21 22 20 18 18 17 15 12 10 9 9 10 11 12 12 11 10 9
85 95 98 100 72 73 56 57 62 64 63 61 58 48 27 21 19 19 18 17 14 12 11 10 11 12 13 12 12 10 7 5 4

GFSFLT1_700_rhum_054.txt.gz
RH
32 27 23 17 12 9 8 8 8 8 8 8 9 10 12 14 18 20 22 21 21 19 18 18 19 19 19 18 18 17 16 15 14
31 28 28 27 26 24 22 21 20 21 21 22 22 22 20 19 17 16 17 19 23 25 24 25 24 22 20 20 19 20 20 20 20
33 27 21 18 17 17 18 18 18 18 18 18 20 22 24 26 26 25 26 23 21 21 20 20 21 22 33 50 62 55 63 63 60
32 32 27 22 21 22 23 24 25 25 25 26 29 30 31 29 26 23 23 24 25 25 25 24 25 25 28 32 54 74 84 94 89
37 34 33 32 29 26 26 27 28 29 30 32 33 33 33 29 25 27 28 27 25 24 24 24 26 28 28 28 30 38 59 73 85
44 40 38 37 37 35 33 32 31 31 32 34 36 37 35 32 28 30 28 26 25 24 26 28 29 31 30 30 32 33 33 39 51
46 46 43 42 41 41 42 40 38 37 36 39 40 39 36 32 30 30 28 28 27 26 26 28 29 29 28 29 30 30 29 28 28
45 46 47 46 45 45 45 45 46 42 39 39 37 38 36 33 31 29 30 28 27 26 28 27 26 22 18 14 11 10 9 10 10
46 46 47 48 48 48 48 48 49 46 44 42 39 37 35 33 30 28 28 29 27 25 21 14 10 8 8 8 8 9 9 10 10
48 48 48 47 48 49 50 50 50 46 41 39 40 35 34 31 28 28 24 18 14 11 10 10 10 11 12 13 13 14 14 14 13
52 49 53 56 52 51 50 52 50 44 38 37 36 34 31 30 28 24 18 12 11 12 14 15 16 16 16 15 15 15 14 14 14
56 63 63 62 67 52 51 52 43 36 38 37 34 32 33 32 31 29 24 16 15 17 17 17 16 15 15 14 14 14 14 14 14
52 64 64 68 71 62 52 43 37 40 37 34 34 35 30 29 29 28 22 20 18 18 16 16 15 15 15 15 15 15 15 15 14
52 54 58 60 59 65 69 67 39 39 36 37 36 31 34 34 33 27 20 19 18 17 16 16 16 16 16 16 16 15 14 14 12
48 62 65 64 61 74 76 74 55 38 40 38 34 37 39 40 39 30 22 20 19 18 17 17 17 17 16 16 14 13 11 9 8
51 57 70 77 72 78 80 92 60 40 43 41 42 43 46 46 40 30 22 20 20 19 18 17 17 16 16 14 12 10 8 7 7
64 67 66 88 85 89 89 94 46 47 46 48 49 51 47 48 45 32 22 22 22 19 18 18 17 15 13 11 9 9 9 9 10
61 68 78 94 97 97 96 91 70 52 50 52 54 54 53 52 49 44 30 24 21 19 18 17 14 12 11 10 10 11 12 13 13
58 62 73 83 100 97 96 98 82 59 60 57 56 54 56 58 55 47 35 25 20 19 17 15 12 12 12 13 14 13 12 11 9
56 57 78 91 99 99 98 70 71 59 65 60 54 54 55 59 59 53 32 21 19 17 14 13 12 14 15 15 13 11 9 7 5

GFSFLT1_700_rhum_057.txt.gz
RH
34 32 31 28 24 20 17 15 13 12 11 12 13 15 18 20 21 22 19 17 15 15 16 17 18 17 16 15 16 18 19 19 18
32 30 26 24 25 25 25 24 23 23 22 22 21 20 17 15 15 20 22 23 24 23 23 23 23 23 23 29 34 29 28 29 29
30 30 26 20 17 16 16 16 16 17 18 19 21 22 24 24 26 25 24 21 21 22 24 24 24 23 23 30 44 78 83 79 81
34 30 30 29 25 22 22 23 24 25 26 26 27 28 29 27 26 24 24 26 27 26 25 24 24 24 25 26 27 34 55 68 74
41 38 35 33 32 31 28 27 27 27 28 29 30 31 31 31 31 29 28 28 27 25 26 26 27 27 28 30 31 31 32 36 47
42 43 42 40 39 38 37 35 34 33 32 31 33 32 31 33 33 30 30 29 27 26 27 27 27 27 27 28 29 29 30 31 31
43 43 45 45 44 43 43 43 42 40 39 37 36 35 34 34 33 32 32 29 27 26 27 26 26 26 25 24 23 21 20 19 20
44 43 43 43 44 45 45 48 47 46 44 40 35 34 34 33 32 32 30 28 27 26 25 22 19 14 12 10 8 8 8 8 8
45 45 45 45 46 47 46 47 50 50 46 43 38 38 36 34 33 30 29 27 22 17 13 11 10 10 10 10 11 11 12 12 12
47 47 48 48 52 53 50 47 46 47 48 45 38 39 36 34 30 30 28 24 19 15 12 12 14 15 16 16 16 16 15 15 15
49 51 50 54 57 56 56 56 45 47 44 37 36 37 34 31 33 31 28 28 25 18 15 16 17 17 16 16 15 15 14 14 14
54 53 56 61 61 61 58 59 52 53 38 31 35 36 34 33 29 28 29 27 22 20 19 18 17 16 15 15 15 15 15 15 15
52 51 52 54 57 63 64 57 61 62 47 35 36 34 35 32 33 35 34 29 24 20 19 18 17 17 16 16 16 16 16 16 16
52 51 50 53 59 61 60 61 67 65 57 39 35 37 34 38 41 42 40 34 27 22 20 19 18 18 18 17 17 16 16 15 14
48 48 49 53 63 68 66 74 76 74 73 48 38 38 39 44 47 46 44 36 28 23 21 21 20 19 18 17 17 16 15 13 11
52 51 54 60 57 66 77 83 84 86 87 48 44 44 44 49 49 50 48 46 40 29 26 24 22 19 18 17 16 14 13 11 10
57 59 62 62 70 81 89 93 88 86 96 54 67 49 51 53 51 50 51 50 48 42 34 24 20 19 18 16 14 13 11 11 11
60 62 61 66 74 83 92 96 93 90 93 83 57 59 60 52 49 49 51 53 52 47 34 23 20 18 16 14 12 12 13 14 15
55 59 63 67 74 80 88 93 99 98 82 73 62 61 58 53 51 51 54 58 55 42 26 20 18 16 14 13 14 15 15 13 11
61 59 64 65 74 81 92 94 97 95 96 72 62 64 59 56 53 53 62 60 42 26 19 17 15 14 14 16 16 14 11 9 6

GFSFLT1_700_rhum_060.txt.gz
RH
33 33 31 30 29 27 24 21 19 17 16 17 17 18 19 21 21 20 17 15 15 20 24 24 24 24 25 24 22 20 19 18 18
30 30 26 23 22 23 23 24 24 23 22 22 20 18 16 16 18 20 23 24 23 23 22 22 21 22 25 48 62 68 64 51 54
29 28 28 24 20 18 17 17 17 18 18 20 21 21 22 25 26 25 23 22 25 27 26 26 25 25 26 28 42 53 64 80 86
38 33 30 29 27 25 23 24 24 25 25 26 26 26 28 29 28 26 26 27 28 27 26 25 26 26 28 29 31 32 35 43 56
43 41 38 36 33 32 30 29 28 28 27 27 27 28 30 32 32 31 30 29 29 28 27 27 28 27 28 29 30 30 32 33 33
44 42 44 42 41 40 39 39 38 36 34 33 31 30 31 33 33 32 30 30 28 28 28 27 27 26 27 28 28 27 27 28 29
45 41 41 43 44 43 44 44 44 43 42 40 37 34 32 34 35 32 32 31 28 27 28 26 25 23 22 19 16 14 12 11 10
45 44 42 42 43 43 45 45 46 46 47 45 42 38 33 33 33 33 31 29 28 25 20 17 14 12 11 10 9 9 9 9 9
46 46 45 46 47 47 47 46 44 42 47 49 45 39 31 33 34 32 30 30 28 24 19 14 12 12 12 13 14 14 15 15 15
48 48 47 49 49 52 52 55 52 48 42 42 43 39 34 34 33 32 33 32 29 27 23 18 16 16 16 17 16 16 16 15 15
49 49 50 51 52 59 63 60 59 55 50 46 40 36 35 35 33 33 30 30 29 25 22 20 19 18 17 16 16 15 15 15 15
52 51 53 53 60 60 61 59 55 53 60 59 45 39 36 34 34 32 34 35 33 28 23 20 19 18 17 17 17 16 16 16 16
50 52 53 54 52 52 53 57 59 58 66 61 47 40 38 37 35 38 42 42 39 33 26 22 21 20 19 18 18 18 18 17 17
51 52 53 52 49 52 58 64 63 67 76 75 65 45 41 40 42 46 47 46 44 40 31 25 23 22 22 21 20 19 18 17 17
52 51 50 51 49 48 58 68 73 79 81 86 91 69 46 49 52 52 51 49 48 48 46 42 35 30 26 23 21 19 18 17 16
52 51 52 54 56 65 67 78 84 85 91 86 86 74 50 55 61 73 53 50 50 51 52 50 46 39 32 26 22 19 18 16 14
58 55 58 60 64 64 74 82 92 94 87 90 90 86 64 70 69 60 53 49 49 51 55 54 49 42 29 22 19 17 16 14 13
66 61 60 64 67 64 73 76 93 96 90 96 91 86 76 63 62 56 52 51 50 52 56 53 45 34 23 19 17 15 14 14 14
70 70 67 64 66 64 68 76 87 95 89 100 98 95 86 66 60 56 53 52 51 56 57 50 37 24 19 17 15 14 16 16 16
72 71 70 66 64 67 70 79 85 93 99 98 99 81 73 63 63 60 58 55 57 59 56 38 23 18 16 15 16 17 16 13 10

GFSFLT1_700_rhum_063.txt.gz
RH
32 32 32 30 28 27 24 21 19 19 18 17 18 19 21 22 21 20 18 15 15 20 22 22 23 23 31 30 32 32 27 24 22
27 29 28 24 21 21 22 23 22 22 21 19 18 16 17 17 20 23 24 23 23 21 22 23 24 26 33 75 79 82 80 76 67
33 28 27 26 23 20 19 19 20 20 21 22 22 24 25 27 27 26 24 23 24 26 27 26 25 26 26 27 27 29 40 48 66
41 37 32 29 27 26 24 24 24 24 24 24 26 27 28 28 28 28 27 26 27 28 27 26 26 27 28 28 28 30 30 32 33
43 42 40 37 35 34 33 32 32 32 32 31 31 29 28 28 29 30 30 29 29 29 28 27 26 27 27 28 28 28 30 31 31
42 44 41 43 42 42 42 42 42 41 41 41 39 36 33 31 32 32 31 30 30 29 28 27 26 26 26 26 25 24 24 24 25
44 43 42 41 42 43 43 44 44 45 46 48 47 44 40 34 34 33 32 31 29 28 27 25 22 18 16 14 13 11 10 9 9
45 46 45 43 44 44 44 44 44 43 42 43 47 49 46 38 37 35 33 30 29 29 26 22 18 14 12 11 11 11 11 11 11
47 47 47 46 47 47 48 49 50 48 46 45 45 47 44 36 37 35 32 32 32 30 28 26 22 18 15 15 16 16 16 16 16
48 48 49 48 49 50 52 56 61 58 55 51 48 45 40 38 37 35 35 33 30 28 27 25 23 21 20 18 17 17 16 16 15
49 49 50 50 52 52 56 62 63 58 54 54 58 55 44 39 38 37 35 34 35 34 32 29 26 22 20 18 18 17 17 16 16
51 52 52 54 54 55 61 62 60 62 60 57 62 58 47 41 40 38 37 39 42 41 38 34 30 26 23 22 20 20 19 18 18
54 56 58 57 55 56 57 56 58 60 60 64 72 70 61 48 41 41 46 48 47 46 43 41 38 33 30 27 25 24 23 21 20
53 54 56 54 54 55 57 57 56 60 68 75 80 85 87 78 49 45 52 54 54 51 49 49 48 47 45 43 40 34 28 23 20
49 53 55 53 56 60 53 51 59 68 77 83 89 87 83 79 53 54 57 60 64 66 55 49 52 52 51 48 45 39 30 24 21
52 52 52 53 56 60 54 64 68 75 87 88 94 76 88 85 62 61 67 56 60 54 49 48 50 53 52 49 44 37 27 21 19
60 60 59 59 62 61 63 68 71 77 92 93 96 88 86 85 79 79 68 65 58 53 50 49 50 53 53 48 39 27 20 18 16
67 69 65 62 61 64 70 71 74 76 86 98 99 85 93 92 83 88 72 65 58 55 52 52 51 53 53 47 34 22 18 16 15
74 74 73 69 68 69 75 74 75 78 81 93 99 100 98 91 92 83 70 65 60 58 56 54 53 56 54 43 28 20 17 16 17
68 74 75 77 78 82 81 76 75 76 81 86 99 100 99 98 82 71 68 66 64 61 58 57 57 58 50 31 19 18 18 18 18

GFSFLT1_700_rhum_066.txt.gz
RH
30 31 30 30 29 28 27 25 24 22 22 21 22 23 23 22 20 18 18 18 20 23 23 22 20 21 24 25 33 44 53 45 39
28 27 27 25 21 19 19 18 18 17 17 17 19 20 23 24 25 25 25 25 23 22 22 24 25 24 23 26 32 62 90 83 80
39 34 28 26 25 22 21 21 22 23 24 26 28 28 28 29 30 28 27 26 26 27 27 26 25 24 25 26 26 27 32 35 37
41 41 37 32 28 26 25 25 25 26 28 29 30 30 31 31 33 34 32 30 29 29 29 27 26 27 27 27 28 29 30 30 31
41 40 41 40 38 36 35 35 36 37 38 38 38 38 36 33 31 32 32 32 31 32 30 28 28 28 27 28 28 29 29 28 29
44 42 41 41 43 42 41 40 40 41 41 42 44 44 42 39 35 34 33 32 33 31 29 27 26 25 23 21 19 18 18 17 17
44 45 43 43 42 41 40 40 42 42 42 41 41 42 42 42 36 33 33 32 31 30 28 28 26 22 17 14 12 11 10 10 10
46 46 46 45 45 44 45 45 46 49 48 47 46 45 44 43 37 34 32 32 30 31 30 29 27 25 22 17 15 14 14 15 15
48 48 47 47 47 47 48 49 52 56 55 54 51 49 47 44 38 35 34 32 31 31 29 27 26 24 23 22 20 18 17 16 16
49 49 49 49 49 50 50 53 56 62 60 56 54 54 55 50 41 37 36 34 33 31 32 32 31 30 28 25 22 19 18 17 17
50 50 50 50 51 52 53 55 62 65 61 59 57 59 59 55 47 41 37 36 36 38 38 38 38 36 33 30 27 23 22 20 19
52 52 52 52 53 54 56 60 65 65 63 65 62 62 67 64 58 49 42 40 42 46 46 45 44 43 42 42 40 38 34 30 27
53 54 55 55 56 58 59 63 62 58 62 62 66 73 78 82 80 76 57 45 48 50 50 50 50 48 46 46 46 45 43 42 40
56 57 59 58 60 60 58 57 57 56 57 62 70 80 88 84 79 76 59 53 56 56 57 58 57 54 46 46 47 47 45 42 41
55 57 58 56 56 57 58 59 57 54 61 68 75 84 85 78 81 83 68 57 60 63 59 56 50 50 49 48 49 50 48 43 39
57 58 57 56 56 58 59 57 55 59 69 72 84 91 94 81 86 85 83 73 72 67 63 55 53 52 50 50 50 52 50 44 35
64 63 60 60 60 61 61 63 65 69 72 73 86 94 89 93 89 90 86 84 80 71 63 59 57 55 54 53 53 54 52 44 30
65 68 68 66 67 65 63 69 76 76 79 81 86 98 97 98 87 95 88 92 88 69 65 62 60 57 55 54 53 53 52 40 26
69 74 76 72 72 68 66 68 78 87 95 97 93 88 99 96 96 91 88 84 76 68 66 65 61 60 58 56 54 54 52 35 21
74 75 77 78 77 75 78 80 85 87 97 100 99 99 98 100 98 98 93 81 78 67 67 68 65 63 61 60 59 57 43 24 19

GFSFLT1_700_rhum_069.txt.gz
RH
28 29 27 27 27 27 27 27 25 22 21 22 23 23 22 20 19 18 19 24 25 34 22 23 28 29 31 34 49 53 61 68 56
32 28 26 24 21 18 17 17 17 18 18 19 21 23 24 25 25 26 26 25 24 25 26 26 26 25 24 25 29 38 35 37 51
41 37 31 27 25 23 22 22 24 24 25 25 26 28 28 29 30 31 31 29 28 28 28 28 27 27 26 26 26 27 28 30 33
38 40 40 35 30 28 27 27 28 29 30 31 32 32 31 30 29 30 31 32 31 30 29 29 28 28 27 26 27 27 27 28 29
42 40 39 41 41 39 38 38 38 38 37 37 37 37 36 35 32 30 32 33 32 32 31 29 28 27 26 26 25 24 24 25 25
44 42 40 40 40 39 38 37 38 39 40 40 40 40 40 39 37 32 30 31 32 31 29 28 27 26 23 20 17 14 13 12 11
45 44 44 43 43 43 42 42 43 48 50 47 46 46 45 43 41 35 31 32 33 30 29 29 29 27 25 23 19 16 14 13 13
47 47 46 45 45 45 46 47 47 53 53 52 51 49 48 47 45 39 34 32 33 32 31 30 27 26 24 23 22 20 19 17 16
49 48 48 48 47 47 47 48 50 54 56 57 55 53 52 53 52 44 37 34 34 33 32 32 31 31 30 28 25 22 20 19 18
49 49 49 49 49 49 49 50 52 55 61 61 58 55 56 57 56 49 42 39 37 35 35 36 38 37 36 34 31 28 26 23 22
49 50 50 51 50 50 51 52 53 57 62 61 58 59 59 60 60 56 54 53 48 40 37 40 42 42 42 43 42 42 40 38 35
51 50 51 52 52 52 53 54 56 58 63 58 58 57 60 66 71 73 72 71 62 46 44 46 46 45 44 45 44 44 46 46 43
54 54 53 54 54 54 55 57 59 62 61 57 55 54 63 72 78 77 72 68 64 50 53 53 52 55 55 52 45 43 44 44 45
55 55 55 56 57 59 60 61 61 60 60 56 52 60 67 77 82 65 73 76 68 56 58 60 59 56 51 48 47 47 46 45 45
57 57 59 60 59 62 62 60 61 63 60 57 59 66 72 80 83 74 76 78 79 73 63 66 64 58 52 51 50 50 49 48 49
56 54 58 59 59 63 64 62 62 63 63 62 68 72 73 83 89 87 84 85 86 80 82 70 66 59 57 56 55 54 53 51 51
58 56 56 58 59 64 65 65 68 68 67 68 77 76 74 82 91 96 95 85 89 87 89 85 69 64 61 60 59 57 55 54 53
62 60 60 61 62 64 68 68 67 69 74 80 83 81 81 91 99 97 94 88 90 84 81 86 72 66 64 63 62 60 58 57 55
62 66 69 71 69 69 70 74 70 69 74 86 88 90 90 78 98 97 94 98 88 96 79 76 72 66 67 66 65 62 61 60 59
66 66 69 71 70 79 77 80 80 78 83 86 92 95 97 98 92 91 93 99 94 98 87 81 83 83 70 70 67 65 64 63 61

GFSFLT1_700_rhum_072.txt.gz
RH
27 27 26 25 24 24 25 24 23 22 22 23 24 23 21 19 18 20 22 24 27 59 23 36 26 30 30 42 41 50 69 78 86
34 29 26 24 22 19 18 17 17 18 18 18 20 23 24 25 26 27 26 25 25 26 28 28 27 26 26 28 31 31 36 41 50
39 39 34 28 25 23 23 23 24 24 25 25 25 25 25 26 26 28 29 29 28 28 29 29 29 28 27 27 28 28 28 29 31
40 35 40 38 34 31 28 28 29 30 32 34 34 34 34 32 30 29 28 29 29 29 30 30 30 29 28 28 28 28 28 28 28
42 43 38 38 40 40 39 38 38 38 37 38 38 39 39 38 36 33 32 33 32 31 31 30 28 27 25 23 20 18 17 16 17
43 43 43 39 40 40 38 39 39 41 43 44 45 45 44 44 42 38 33 33 32 32 31 30 29 29 27 25 22 18 14 13 12
46 44 44 43 42 43 42 43 44 49 51 50 48 47 47 45 44 44 38 34 33 32 31 31 30 28 26 24 23 22 20 17 16
48 46 46 45 44 44 44 46 47 50 53 52 52 51 50 49 48 46 46 37 35 34 32 31 30 30 29 28 26 23 21 20 19
48 48 48 48 47 46 46 47 48 49 54 56 57 55 53 53 52 48 51 45 38 36 35 33 33 33 34 33 32 30 27 26 24
49 49 49 49 49 49 48 49 50 51 53 60 60 57 56 54 53 51 56 55 52 49 43 38 37 38 38 38 38 39 39 39 37
49 49 49 50 50 50 50 50 51 53 54 58 61 59 56 54 54 58 64 66 65 64 57 44 43 44 44 44 45 43 42 43 43
47 50 50 50 51 51 51 52 53 54 56 59 62 58 56 51 57 66 71 70 66 63 58 49 50 50 50 53 54 50 44 43 44
50 52 52 51 51 52 53 54 54 56 58 60 64 59 55 52 60 66 74 68 65 68 62 54 55 55 56 54 52 47 46 45 44
50 52 55 54 53 54 55 56 56 58 60 62 62 60 52 57 64 70 76 64 67 72 74 66 59 57 58 58 53 49 48 48 47
48 52 55 56 55 55 57 58 60 61 61 62 64 62 55 62 67 73 81 80 77 77 79 78 76 78 66 59 56 54 52 51 51
52 53 58 60 58 58 60 62 62 62 62 64 64 65 60 64 68 74 83 77 83 83 81 84 80 82 73 66 60 59 58 55 56
59 55 59 58 56 56 58 61 64 63 64 67 70 72 65 64 70 73 80 83 82 90 80 86 83 80 84 72 64 62 61 60 59
57 62 63 60 59 57 58 60 64 67 70 68 73 76 76 71 76 78 75 73 79 93 88 82 88 77 75 73 67 64 63 62 61
55 57 65 73 73 70 65 64 65 69 68 70 68 73 87 89 79 80 86 88 95 95 84 92 84 81 81 79 77 79 70 63 63
57 63 62 65 66 76 76 76 73 70 72 75 74 77 80 86 87 87 88 93 100 98 92 94 93 98 89 88 81 82 74 67 67

GFSFLT1_700_rhum_075.txt.gz
RH
27 26 25 24 22 22 23 24 24 24 24 24 23 22 20 18 18 20 22 24 42 50 26 24 25 26 28 27 58 59 42 57 73
36 31 27 24 22 20 18 17 17 17 18 20 22 23 23 24 24 25 26 26 26 27 26 26 26 26 26 27 28 29 32 33 37
35 38 36 32 26 23 22 22 22 22 23 24 26 27 27 27 26 24 25 26 27 28 29 29 28 28 27 27 28 28 28 29 30
40 34 36 38 36 32 31 30 31 33 33 34 34 33 33 33 32 29 28 28 28 29 30 30 29 28 27 26 25 24 23 23 24
43 44 40 35 39 39 38 38 37 36 37 39 41 42 42 41 40 37 32 29 28 30 31 30 29 28 27 25 22 19 17 15 13
43 43 44 43 38 40 39 38 39 42 46 47 47 46 45 45 43 43 41 35 31 30 30 30 30 30 28 26 24 23 20 18 16
46 45 44 44 44 42 42 43 44 47 51 51 49 49 49 48 46 46 46 43 37 33 32 31 30 29 28 26 25 24 22 21 20
47 47 46 45 44 44 44 44 46 47 51 53 52 53 53 52 51 50 47 48 44 39 36 34 33 32 31 30 30 29 28 26 24
46 48 48 47 47 46 46 46 46 47 49 53 56 58 57 55 54 51 47 50 51 48 47 44 40 35 35 35 35 34 34 33 33
48 47 48 49 48 48 48 48 48 48 50 51 55 60 60 58 56 49 47 54 59 61 62 59 50 42 39 40 40 41 42 41 41
49 47 48 49 49 49 49 50 50 50 51 52 54 58 62 59 56 45 49 57 64 66 62 58 55 47 45 46 46 47 47 46 43
50 43 41 47 50 50 50 50 51 51 52 53 55 58 62 60 56 45 48 58 65 66 62 62 58 52 49 50 51 53 49 47 45
43 38 38 46 50 50 50 51 52 52 53 54 56 59 62 60 56 49 55 56 64 58 60 65 66 62 56 54 53 53 52 49 47
39 38 42 50 51 51 52 52 52 54 55 56 58 61 63 61 57 52 60 64 68 69 68 65 69 71 69 69 65 61 56 52 51
47 46 43 49 54 54 54 54 53 55 57 59 60 62 63 61 59 55 62 65 74 78 69 73 68 72 73 71 72 65 59 56 54
46 51 51 54 56 58 56 56 56 58 60 61 62 63 64 64 61 60 62 66 72 80 74 69 81 71 74 73 72 75 68 61 58
49 61 59 57 58 60 62 60 61 60 64 64 67 66 65 64 65 67 69 72 74 76 82 76 83 80 74 76 72 70 71 68 64
48 57 60 65 67 63 65 62 59 60 66 67 73 70 66 63 65 76 77 79 75 80 82 82 84 90 80 84 71 76 78 77 76
48 52 53 56 59 62 70 73 66 67 64 68 67 70 71 73 72 72 76 82 80 84 91 96 96 99 95 88 84 85 88 83 83
42 45 53 52 61 61 62 69 72 78 80 74 73 75 75 79 80 78 75 78 83 93 98 95 98 96 92 96 91 83 91 85 92

GFSFLT1_700_rhum_078.txt.gz
RH
28 26 24 23 23 21 21 22 23 23 23 21 19 18 18 18 19 21 21 23 37 23 22 23 24 24 24 26 28 26 27 31 46
37 35 30 26 23 22 21 19 19 20 21 22 23 23 22 22 22 23 23 24 26 25 25 25 26 26 26 26 26 26 26 27 28
32 34 37 34 29 25 23 22 22 24 26 29 30 31 30 30 28 27 26 26 26 26 26 26 27 27 27 26 26 26 26 25 25
38 36 32 38 38 36 35 34 34 34 34 33 34 35 37 37 37 35 31 28 28 28 28 28 28 27 26 26 25 23 21 18 16
44 44 42 35 37 38 37 36 34 35 39 42 44 44 44 43 42 41 42 39 32 30 29 29 28 28 28 27 26 25 23 21 17
44 44 45 44 42 37 40 40 41 43 48 49 48 47 47 45 45 45 43 41 41 36 32 31 30 30 29 27 26 24 23 22 21
45 46 45 45 45 44 43 41 43 46 50 50 49 50 51 49 50 51 49 42 42 43 39 36 34 33 31 30 29 28 27 25 24
39 43 47 46 45 45 45 45 45 46 48 51 53 53 54 53 53 54 52 43 43 48 48 46 45 41 37 34 33 32 31 30 30
44 42 44 48 48 47 47 46 46 47 48 49 51 55 57 55 54 55 52 44 46 50 53 55 56 54 47 39 37 37 37 37 38
46 46 46 42 46 49 49 49 48 48 49 49 50 52 54 58 55 56 52 43 48 56 59 59 56 54 50 45 42 42 42 41 40
48 48 47 47 44 46 50 50 50 50 50 50 51 52 54 56 57 56 53 43 50 56 62 60 57 57 54 49 47 47 47 49 48
49 49 50 48 41 40 44 50 50 51 51 51 52 52 54 56 59 56 55 45 51 55 63 56 56 60 62 56 52 52 51 51 50
52 51 51 46 40 38 40 49 51 51 52 53 53 54 54 57 60 60 53 49 51 56 59 62 62 60 62 66 66 64 59 57 54
46 45 44 41 40 42 48 51 51 52 52 54 54 55 57 58 60 62 58 51 51 59 60 64 66 66 65 64 64 65 69 66 58
38 48 49 48 48 44 44 55 56 55 54 54 56 57 59 60 63 62 61 57 55 56 62 66 67 68 65 68 62 63 66 69 69
42 50 53 53 48 50 51 56 60 58 58 57 57 59 62 64 63 64 63 60 61 60 63 67 70 73 72 72 73 69 67 68 70
38 40 43 44 47 60 60 58 60 64 68 67 67 65 65 64 65 66 65 65 66 68 68 70 75 78 78 77 87 88 83 83 77
43 42 44 47 49 60 64 63 63 63 67 66 71 72 69 70 67 67 70 73 72 74 76 76 78 82 89 93 92 92 90 92 87
48 53 48 48 54 56 58 59 62 63 68 73 70 73 75 75 73 72 73 75 75 76 79 87 86 94 87 90 93 92 89 91 90
48 50 52 53 48 54 61 65 64 66 64 62 71 79 85 85 81 79 78 81 86 86 83 91 93 97 99 96 89 91 85 98 100

GFSFLT1_700_rhum_081.txt.gz
RH
30 27 24 23 22 21 20 20 20 19 18 18 18 19 20 21 20 21 21 24 22 23 25 24 24 24 25 25 25 25 25 27 35
37 36 33 29 24 22 21 21 21 21 22 22 23 24 26 26 26 25 24 24 23 23 25 25 26 26 25 25 25 25 25 25 26
30 32 36 36 34 30 27 26 27 29 31 31 30 30 30 32 31 30 28 26 25 25 26 26 26 26 26 25 24 24 23 22 21
38 36 31 33 37 37 36 35 34 34 33 34 39 41 42 43 42 41 41 39 35 30 28 27 27 26 26 26 26 25 24 22 20
44 43 41 40 34 35 36 36 36 40 43 45 46 45 42 43 39 37 37 38 38 39 36 33 31 30 29 28 27 25 24 22 21
45 45 46 45 43 42 38 39 42 44 47 46 44 45 44 49 44 47 48 44 38 39 41 39 37 36 36 33 31 29 27 26 24
38 43 46 46 46 46 45 45 43 43 46 48 49 49 49 52 50 52 52 46 39 41 45 45 45 45 43 39 36 33 31 30 29
43 40 38 43 48 47 46 46 46 46 47 48 50 52 54 56 55 55 54 49 39 40 46 50 53 54 53 49 42 37 35 34 34
45 45 43 42 42 48 49 49 48 48 48 48 50 50 51 51 55 56 55 52 40 43 44 49 53 51 51 50 46 42 40 40 40
47 47 47 47 45 44 44 48 50 50 50 50 50 51 52 51 52 55 56 54 45 43 48 50 53 48 49 51 49 46 45 44 43
48 48 49 49 49 47 44 44 46 51 51 51 51 52 52 52 52 54 57 56 51 43 51 52 53 52 51 53 55 53 50 48 47
47 48 49 50 50 50 45 40 39 46 51 52 52 53 53 54 54 54 57 58 54 47 49 55 56 59 57 56 57 61 61 59 56
54 54 53 52 52 50 44 39 39 42 49 51 52 53 54 55 56 56 57 60 59 51 49 55 57 60 61 58 60 59 58 60 62
48 46 45 46 46 45 43 41 42 46 53 54 53 53 54 56 57 58 60 59 62 59 55 56 58 60 60 61 61 64 61 62 61
32 30 33 40 45 52 53 51 48 45 50 59 58 56 56 56 58 60 62 63 61 62 59 61 62 62 65 63 65 66 68 71 70
38 39 38 42 48 52 50 47 46 52 57 63 62 63 60 60 60 63 64 65 66 67 63 64 67 70 69 70 74 75 76 82 88
44 44 44 44 45 48 47 46 56 64 63 62 66 66 66 64 69 70 69 68 68 69 71 74 73 77 79 79 80 82 87 89 81
53 51 48 48 48 51 52 55 58 65 70 74 76 70 66 66 65 68 73 75 75 75 78 80 83 87 92 95 92 94 95 94 91
58 56 52 50 49 52 52 62 63 65 65 68 66 69 72 75 76 74 77 79 79 84 90 95 97 99 100 100 100 100 100 100 100
66 59 53 50 51 53 59 66 62 64 67 68 71 73 75 78 81 82 80 82 86 91 100 100 98 96 98 94 99 96 98 100 100

GFSFLT1_700_rhum_084.txt.gz
RH
31 28 25 23 22 21 20 20 19 18 18 18 19 20 20 21 21 21 21 21 21 22 23 23 24 24 25 24 24 24 24 25 26
35 35 33 30 25 22 21 21 21 21 22 24 27 28 28 28 27 26 26 25 25 25 25 25 25 25 25 25 24 24 24 23 23
29 30 34 36 35 33 32 32 32 32 31 30 31 35 38 40 40 40 39 37 34 30 27 27 26 26 26 26 25 25 24 22 20
34 33 30 31 35 36 36 35 34 33 35 39 42 44 42 40 38 36 35 35 36 39 38 35 32 30 29 28 27 26 24 23 22
42 39 36 36 36 34 36 38 40 42 42 41 37 42 39 38 38 40 40 36 31 30 34 36 37 37 37 36 34 31 28 26 24
43 45 46 44 41 40 41 40 40 40 40 41 40 44 47 47 46 44 49 44 36 34 36 37 39 40 41 41 40 38 34 32 29
41 38 42 45 47 47 47 45 46 46 46 46 48 50 52 54 55 50 49 48 39 39 40 42 43 44 46 48 47 43 39 36 34
44 45 43 40 41 46 48 48 48 48 48 48 49 50 51 52 53 52 51 51 47 38 43 44 44 46 44 45 46 44 42 40 38
46 45 46 46 46 43 46 48 50 50 50 50 50 50 51 52 54 53 54 55 52 43 40 46 44 45 43 44 45 46 45 44 42
48 47 47 48 48 48 46 46 47 49 51 52 52 52 52 51 53 55 55 57 57 53 42 47 50 49 48 46 46 48 50 49 47
49 49 49 49 50 50 50 49 45 43 47 51 52 53 53 53 53 54 56 57 58 58 52 46 49 54 54 53 51 51 52 54 56
47 47 48 48 49 50 51 51 47 43 41 43 50 52 53 54 55 55 56 58 59 60 58 52 50 52 57 60 59 58 57 56 55
52 52 54 55 54 53 53 52 46 44 44 48 52 53 53 53 55 56 57 59 61 61 62 60 56 56 59 62 64 64 64 63 57
46 51 48 43 40 40 43 46 48 47 47 45 45 52 57 56 56 56 58 60 61 64 65 64 64 62 62 64 68 72 75 71 68
35 33 33 32 30 33 38 44 48 49 50 49 51 53 57 61 61 60 60 61 64 66 68 69 72 72 70 71 72 75 84 85 78
38 39 41 42 41 39 40 43 45 46 53 59 60 62 61 61 66 71 71 70 70 71 72 72 75 79 82 83 85 86 89 92 87
44 46 47 47 48 47 46 47 47 52 59 67 75 70 66 66 70 73 73 75 76 77 80 81 81 83 88 95 98 98 98 98 95
55 53 50 53 54 53 53 49 53 54 62 65 72 70 66 68 72 76 80 84 86 88 88 87 88 90 94 100 100 99 98 99 100
54 56 56 56 60 59 58 55 59 60 60 68 72 74 78 79 75 72 73 78 83 87 88 91 97 100 100 100 97 97 94 93 100
50 53 56 60 59 58 57 54 54 56 57 63 70 73 72 71 70 69 74 78 82 85 87 89 90 91 99 100 100 99 100 96 99

GFSFLT1_700_rhum_087.txt.gz
RH
31 28 24 23 22 21 21 20 19 19 19 20 21 22 24 26 26 25 25 24 24 23 23 24 24 24 24 24 24 24 24 24 25
33 34 32 30 26 24 22 22 23 25 28 29 29 29 32 34 36 36 36 34 30 27 26 26 26 26 25 25 25 24 23 22 22
28 32 34 35 35 35 35 34 33 32 32 35 39 41 41 40 37 35 35 35 38 39 37 34 31 30 29 28 28 26 25 24 22
31 31 29 31 34 35 35 35 36 39 43 44 42 39 36 35 34 36 35 34 32 31 34 36 37 37 37 37 35 33 30 27 25
34 34 32 34 35 35 35 35 36 36 35 39 40 41 42 44 44 41 43 39 35 33 31 33 34 37 39 40 39 38 37 35 32
36 39 41 40 40 42 41 40 41 42 42 45 48 47 48 48 50 49 45 43 36 37 38 39 40 42 44 44 45 45 42 39 36
42 42 37 39 43 46 48 48 48 48 49 49 50 51 52 51 51 52 49 48 44 36 40 41 41 43 42 42 43 43 42 41 40
45 45 46 46 45 42 47 49 49 50 50 51 51 51 52 53 53 53 53 50 51 48 38 42 45 44 42 40 41 43 44 44 44
46 46 45 46 47 48 46 45 47 50 51 52 52 52 52 53 53 54 54 55 54 54 51 43 45 48 47 47 45 44 47 48 48
47 48 47 48 48 49 50 50 49 47 47 48 48 52 53 54 54 54 55 56 57 57 57 53 47 48 51 51 51 52 52 53 54
49 49 50 50 50 50 51 52 52 50 47 44 44 46 52 54 54 55 56 56 58 59 60 59 56 52 52 55 58 59 58 58 58
48 49 50 49 49 49 50 51 52 52 49 46 46 48 50 53 53 54 56 57 59 60 62 65 64 60 58 59 63 66 67 64 64
47 47 47 50 53 56 55 52 51 50 48 48 48 47 49 54 56 55 56 57 60 61 63 65 69 69 67 66 67 71 75 76 74
55 56 56 51 53 43 35 33 38 45 49 51 52 52 50 50 54 62 60 59 60 63 66 68 70 76 77 76 75 77 81 85 86
40 42 43 35 33 35 36 34 36 41 48 49 48 48 52 56 58 67 71 70 67 66 69 72 74 75 80 85 87 86 88 94 95
39 39 37 40 42 44 42 43 42 40 42 40 41 45 53 58 65 68 74 77 80 80 80 81 82 83 83 84 91 96 95 93 100
43 45 46 48 48 48 49 53 52 50 49 50 54 49 49 53 66 68 76 81 87 90 92 92 90 93 96 94 92 94 99 98 99
55 55 55 56 54 54 58 60 59 58 56 56 61 58 54 56 60 68 74 78 83 85 87 88 92 95 94 99 100 100 100 100 100
58 58 59 60 58 60 63 67 66 65 61 59 60 62 63 75 68 58 59 67 72 76 81 84 87 88 92 94 96 100 100 100 99
58 58 55 54 56 60 66 70 69 62 58 54 54 57 57 59 72 72 74 68 81 73 93 97 89 98 100 100 100 100 99 100 100

GFSFLT1_700_rhum_090.txt.gz
RH
30 27 24 22 21 21 20 20 21 21 23 26 28 28 29 30 33 34 33 31 28 27 26 26 26 26 26 25 25 24 24 23 22
31 31 31 29 27 27 28 30 31 31 31 33 37 39 40 38 36 35 36 37 38 37 34 32 30 29 29 28 27 26 25 24 22
28 30 32 34 35 35 34 34 33 36 39 40 39 36 32 30 28 30 30 28 28 31 35 36 37 37 37 36 34 32 30 27 25
28 28 28 29 30 32 34 37 39 38 35 34 34 35 37 37 36 36 38 33 34 30 29 31 34 36 38 38 38 38 36 33 30
30 29 29 28 30 32 34 34 36 38 40 42 44 44 45 45 45 43 40 39 35 37 37 37 38 39 41 42 43 44 42 39 36
36 32 32 35 37 39 42 43 44 47 48 49 50 50 50 50 51 51 47 44 42 36 39 40 39 39 40 41 43 44 43 41 40
43 43 43 42 39 44 47 49 49 48 50 51 51 52 52 53 53 54 54 53 48 46 41 36 40 41 40 40 40 41 44 44 44
46 46 45 46 47 46 45 45 48 50 51 52 53 52 53 53 54 54 54 55 54 51 48 44 39 40 44 44 42 43 44 47 48
46 46 46 46 47 48 50 50 49 48 45 46 49 53 54 54 54 55 56 56 56 57 55 53 50 45 44 47 48 48 49 50 51
47 47 47 47 48 49 49 50 52 52 51 47 45 46 50 53 55 55 56 56 57 58 59 59 58 55 51 51 53 55 56 55 55
48 48 49 50 51 51 51 52 52 53 52 51 48 45 46 47 51 54 55 56 58 59 60 62 64 64 61 57 58 61 63 63 60
49 50 50 50 51 51 50 50 51 54 55 53 49 47 47 49 50 53 54 55 57 59 60 63 66 70 72 69 65 64 66 68 70
46 48 49 48 48 50 55 56 55 52 51 51 50 49 50 52 53 56 60 60 58 59 61 64 66 69 74 76 76 74 73 75 77
45 48 48 51 56 56 54 38 31 32 36 39 43 48 50 51 52 59 63 67 69 66 64 65 68 71 73 75 79 81 83 82 80
56 56 55 48 52 40 33 34 36 38 38 35 34 35 39 41 47 59 66 70 74 76 78 78 78 78 80 81 81 82 80 83 95
39 34 36 43 37 38 39 42 45 48 49 46 45 40 38 42 47 56 63 72 79 80 82 84 85 89 91 93 94 92 92 87 85
37 39 44 43 43 45 48 52 53 57 59 56 54 49 47 48 53 53 58 63 68 74 79 82 85 86 88 88 94 97 99 100 96
50 50 51 52 53 55 58 58 60 65 67 65 63 62 54 51 48 48 55 63 63 68 78 80 84 86 89 89 90 96 99 100 99
62 61 60 61 59 58 61 60 61 65 70 72 72 69 64 64 53 40 38 45 60 65 68 74 77 80 90 86 93 95 90 96 98
68 70 68 68 65 68 62 62 68 72 76 75 68 58 51 48 43 43 54 99 79 76 72 78 91 80 93 87 95 85 83 99 97

GFSFLT1_700_rhum_093.txt.gz
RH
26 24 22 21 21 21 21 22 24 26 28 29 31 36 37 38 38 37 36 36 36 34 31 30 29 28 28 28 27 26 25 24 22
30 29 28 27 27 30 31 32 31 32 35 37 37 36 32 28 26 25 24 25 28 34 37 36 36 36 36 36 35 33 31 28 26
28 30 31 32 33 33 33 34 37 38 36 32 30 29 28 29 29 31 30 32 29 26 28 30 33 34 35 36 36 36 35 34 32
25 25 26 27 28 31 34 35 33 31 32 35 37 37 36 36 36 36 37 35 36 36 36 36 36 36 38 39 40 42 41 39 37
24 26 26 27 29 30 32 34 36 39 42 43 43 45 46 47 47 46 42 40 36 37 38 38 38 38 38 37 39 41 41 40 39
28 28 30 33 35 37 39 42 45 48 50 51 52 52 52 52 52 52 53 48 44 43 36 36 39 39 38 37 39 40 42 42 41
42 37 41 41 37 44 47 49 49 50 50 51 52 52 53 54 54 54 54 55 55 49 46 43 39 38 40 40 40 41 42 44 45
46 46 46 45 45 47 47 46 46 47 50 51 53 53 54 54 54 55 56 56 56 56 53 49 47 43 42 43 43 45 46 46 47
46 46 46 47 48 48 49 50 51 51 49 46 47 48 50 52 54 55 56 56 57 57 57 55 52 52 49 47 47 48 48 48 49
46 47 47 47 48 49 49 47 49 52 53 52 50 48 47 46 49 52 54 55 57 58 59 59 60 60 60 57 53 52 52 53 55
47 48 48 48 49 50 52 51 50 52 53 54 54 51 47 47 49 51 53 54 55 57 58 60 61 63 64 65 64 61 59 58 58
47 48 49 50 50 51 52 51 50 51 55 56 54 51 49 49 51 53 55 58 58 57 58 59 61 62 64 66 69 70 69 66 63
48 49 50 50 50 50 49 51 56 57 51 45 40 40 42 45 49 53 55 59 65 66 63 61 61 62 64 66 68 71 74 75 76
44 46 47 48 48 48 53 56 52 32 30 33 33 34 35 37 40 47 54 62 64 66 69 72 72 70 70 71 73 73 74 78 81
41 45 48 51 54 57 55 44 32 34 37 38 42 42 41 37 38 45 50 59 66 68 71 73 75 77 79 81 84 84 82 78 84
55 58 56 54 50 50 43 36 38 42 47 44 51 51 48 48 47 48 51 53 53 60 62 69 78 82 84 87 88 88 81 78 72
48 45 39 39 43 43 40 42 45 48 54 53 59 55 55 57 58 55 54 55 59 61 66 72 75 81 86 85 85 84 84 91 92
45 44 45 45 45 47 48 50 53 60 60 64 64 64 65 65 60 54 53 58 62 60 74 77 78 80 79 82 82 88 91 100 99
58 55 58 58 57 57 59 65 73 76 68 64 68 76 80 78 59 46 27 34 47 51 88 83 84 73 93 76 98 80 97 100 98
67 62 67 69 73 80 80 86 76 75 67 70 74 79 67 52 47 36 95 66 84 75 98 79 100 81 85 72 85 84 98 93 91

GFSFLT1_700_rhum_096.txt.gz
RH
22 22 21 20 20 20 21 22 23 26 28 32 35 36 36 35 34 32 32 34 35 35 34 34 34 34 34 34 33 32 29 27 25
25 24 23 23 24 28 30 30 31 34 36 35 32 28 27 26 24 24 25 25 26 29 30 32 33 34 34 33 34 34 33 33 31
30 30 32 32 32 32 33 36 36 34 29 27 27 29 29 29 30 30 30 31 28 28 29 30 31 32 34 35 36 36 35 36 35
30 30 32 32 33 34 36 32 29 29 32 34 34 35 37 35 34 34 33 31 34 34 34 35 35 36 35 34 37 37 38 38 36
25 26 28 31 32 31 32 35 36 38 42 43 44 44 46 46 47 47 43 40 35 32 33 35 34 34 34 34 34 33 34 35 36
25 27 30 32 34 37 40 42 46 48 50 51 52 52 52 52 51 50 48 49 46 41 38 34 34 36 38 37 36 35 34 35 37
26 27 30 35 40 46 48 49 49 50 50 51 52 53 53 54 54 54 54 53 50 50 47 43 41 40 40 40 40 39 38 39 39
45 44 39 37 42 45 46 46 46 46 47 48 49 50 52 53 54 55 55 55 56 55 54 53 50 49 46 44 44 44 44 44 45
46 46 47 47 47 47 48 50 50 51 51 49 48 46 46 46 47 49 52 54 55 56 57 58 58 57 54 53 50 49 49 48 47
46 46 47 47 48 48 48 48 47 50 52 53 52 51 49 47 46 47 48 49 52 54 56 57 58 59 60 60 60 59 56 54 53
46 46 47 47 48 48 50 51 50 49 51 52 54 55 53 50 49 49 50 52 52 52 54 55 57 58 60 61 62 64 66 66 64
46 47 47 48 49 50 51 52 52 51 50 53 53 50 50 50 50 50 50 52 53 55 55 56 58 58 59 60 62 64 66 70 71
46 47 48 48 49 50 51 51 50 52 55 44 31 30 33 36 40 43 45 49 52 55 56 58 62 64 65 65 64 66 69 72 73
46 47 48 49 50 50 50 49 52 54 46 28 30 32 36 37 37 38 39 43 49 56 61 64 65 65 67 72 73 72 74 80 84
46 45 46 46 47 48 48 53 55 46 32 34 39 40 44 47 46 48 47 50 53 55 59 58 60 63 70 75 76 78 74 73 72
40 40 42 44 49 50 56 52 47 36 37 39 47 49 52 56 56 55 57 56 58 59 61 62 67 71 75 80 84 87 87 73 71
39 44 53 56 57 57 47 48 40 40 44 47 54 56 57 61 65 65 65 65 62 63 66 73 74 73 77 79 86 87 87 81 89
60 61 58 54 50 44 46 45 42 46 52 58 63 65 62 62 63 70 71 61 55 56 60 52 50 52 60 80 74 74 95 100 99
64 57 54 51 51 52 52 54 57 63 66 73 76 77 72 71 71 64 42 32 39 52 67 86 68 96 100 98 100 88 99 96 98
81 85 79 80 68 67 73 78 74 74 78 78 78 82 82 85 77 54 32 32 33 62 73 59 88 88 81 88 97 73 99 68 81

GFSFLT1_700_rhum_099.txt.gz
RH
23 23 22 22 21 20 20 21 24 26 29 33 34 34 33 30 30 29 30 33 33 32 32 32 31 32 32 33 33 32 32 32 31
21 21 21 21 21 24 26 28 31 34 35 32 28 24 24 22 23 23 24 23 23 24 25 25 24 24 25 27 28 30 31 32 32
24 25 28 30 31 31 34 36 35 31 27 26 27 28 27 26 27 28 30 31 31 32 30 29 29 30 31 29 30 32 34 36 35
32 32 32 32 33 35 35 29 27 30 32 32 32 35 37 33 31 31 30 30 32 34 34 32 32 31 30 29 30 30 30 30 30
31 30 30 33 32 29 29 33 35 37 39 40 42 43 42 40 41 41 40 37 36 34 31 30 30 30 30 31 31 31 31 32 32
26 27 28 29 29 32 36 41 44 46 48 50 51 52 51 51 50 50 47 44 41 40 38 37 36 35 34 34 34 35 35 35 36
24 26 29 32 34 37 41 43 45 46 48 49 50 50 51 51 51 52 53 53 52 52 48 46 44 42 41 40 39 39 38 39 40
25 24 27 33 38 41 44 46 46 45 45 46 46 46 45 44 43 43 45 48 51 53 54 55 55 54 52 48 45 43 43 45 47
45 44 42 40 39 40 43 46 48 49 50 51 51 50 49 47 45 44 43 44 46 48 48 51 54 56 57 57 57 54 52 52 51
46 47 47 47 48 48 48 48 48 49 51 52 53 53 52 52 50 47 46 46 48 48 49 50 51 54 56 58 59 60 61 62 62
46 47 47 47 48 48 49 49 49 50 50 51 51 52 54 52 49 46 44 44 45 47 48 50 50 53 55 57 58 60 61 64 66
45 46 46 47 47 47 48 49 51 52 51 51 52 50 43 38 34 34 34 35 37 39 42 45 49 53 56 62 64 64 64 65 67
45 45 46 47 48 48 49 50 51 51 51 53 49 32 30 31 32 34 34 34 34 38 39 42 46 54 56 59 61 68 72 72 74
44 45 46 46 47 48 49 50 51 50 52 49 36 31 35 38 42 43 43 43 44 45 46 49 48 49 52 56 55 57 68 79 84
45 45 46 46 47 48 49 51 50 49 55 45 32 35 43 46 50 53 51 51 53 54 52 53 58 59 58 60 65 66 56 57 73
48 48 48 48 48 48 48 49 48 56 53 38 36 40 46 53 56 59 61 63 64 66 63 62 62 62 68 68 70 70 70 74 84
53 50 50 46 45 46 48 49 57 57 46 39 42 46 51 58 64 66 67 72 74 75 65 60 67 64 65 58 59 71 86 84 86
63 52 50 46 49 52 54 59 56 54 44 44 49 54 62 72 73 73 73 81 79 52 34 38 44 69 75 79 95 100 92 100 97
60 65 73 70 66 67 66 60 60 55 50 52 58 68 76 79 80 73 77 81 63 29 34 38 46 80 89 62 100 91 84 97 96
72 89 97 82 82 75 79 80 79 74 78 81 83 81 78 75 81 80 85 77 39 28 38 34 50 51 90 80 99 85 71 64 76

GFSFLT1_700_rhum_102.txt.gz
RH
22 21 21 21 21 21 20 21 23 26 29 32 33 31 29 24 23 22 24 24 25 24 23 24 23 23 25 24 25 26 28 29 30
22 21 21 20 21 22 24 27 31 34 33 28 24 21 20 21 21 23 23 21 21 24 24 24 25 27 27 26 26 28 30 32 33
21 21 22 25 28 30 33 34 33 28 25 24 24 25 24 23 23 25 28 29 29 29 28 28 28 27 26 26 27 28 28 29 30
26 29 31 31 32 34 32 27 25 29 29 29 30 31 30 30 29 29 29 29 28 28 28 28 29 29 29 29 28 28 30 30 30
31 32 32 33 33 27 26 29 31 35 37 39 40 41 39 38 38 38 37 36 36 34 33 33 33 33 32 31 32 32 32 32 34
29 30 31 29 27 28 30 36 43 45 47 47 48 48 44 49 50 50 49 48 48 47 43 40 40 39 38 37 37 37 37 37 38
25 26 26 28 30 31 34 37 42 44 46 46 46 44 40 41 41 41 40 42 45 48 49 51 53 53 51 49 46 45 43 42 43
23 25 26 27 30 35 42 44 45 44 43 44 46 47 48 47 46 44 43 42 42 42 42 45 48 52 54 56 57 58 56 54 52
25 25 25 26 27 31 35 40 44 47 49 51 52 52 52 51 52 49 46 45 44 44 44 44 46 48 50 54 57 58 59 62 63
44 45 45 45 47 47 48 49 49 49 50 51 52 52 53 54 48 48 44 40 38 39 41 45 47 49 51 54 57 58 59 61 63
47 48 48 48 48 49 49 49 49 50 51 51 51 51 52 49 39 33 30 30 28 29 32 37 42 46 48 52 56 61 64 66 66
47 48 48 48 48 48 48 49 49 51 52 52 52 51 46 34 31 31 32 32 32 32 36 38 39 41 42 48 55 58 65 69 72
46 46 46 46 47 47 48 48 49 51 52 52 53 46 32 31 36 40 41 39 40 38 39 40 42 44 44 43 46 56 57 66 72
45 45 45 46 46 47 48 48 49 50 51 51 53 44 31 37 44 46 50 50 47 48 51 49 47 49 46 51 51 50 54 62 69
43 44 44 45 46 46 47 48 49 50 51 50 54 41 34 39 48 54 56 57 60 61 58 61 56 46 44 55 58 57 49 55 63
44 44 44 45 45 46 47 49 49 51 50 51 54 39 37 43 50 58 65 71 70 70 71 66 46 37 38 45 50 55 57 83 83
56 53 50 49 48 49 50 50 50 51 49 58 51 40 42 48 55 66 74 78 77 80 82 68 33 29 33 36 77 78 74 99 90
74 76 61 56 52 53 49 48 51 51 57 63 51 44 47 55 63 73 74 76 78 81 85 66 32 40 36 44 53 79 69 95 94
89 82 77 72 58 53 52 56 55 67 69 63 54 58 68 81 83 78 74 81 83 93 87 59 35 41 41 52 74 82 80 100 96
80 94 95 92 72 62 70 82 72 74 74 71 64 76 94 99 97 86 87 83 88 90 84 39 33 39 43 51 54 78 96 95 71

GFSFLT1_700_rhum_105.txt.gz
RH
16 12 11 12 17 21 21 21 24 27 30 31 29 25 21 18 18 19 18 19 19 20 21 22 23 25 25 26 28 29 30 32 32
21 21 21 21 20 21 24 27 32 32 29 23 20 21 20 21 22 23 24 26 26 26 26 26 26 25 25 26 26 27 27 28 29
21 20 20 21 23 27 32 33 31 24 23 23 23 24 24 24 24 25 26 26 27 27 26 25 26 26 27 27 28 28 29 30 31
21 22 26 28 31 34 33 26 25 26 27 28 29 32 30 32 30 31 31 31 30 31 30 30 30 31 32 32 32 33 33 33 33
28 29 29 31 32 28 26 27 28 31 33 37 39 43 42 42 42 45 45 45 43 42 40 38 36 35 36 36 36 37 37 38 37
27 28 30 28 26 27 27 31 38 41 42 44 43 47 41 40 40 41 42 43 43 44 45 46 46 47 48 48 48 48 46 44 43
23 24 27 26 28 30 31 34 37 39 41 42 40 40 42 43 44 44 44 43 43 43 42 42 43 44 46 50 53 55 57 57 57
22 24 25 28 27 30 34 38 38 40 44 46 47 48 49 49 50 48 46 45 44 42 42 41 43 45 47 49 51 55 58 59 60
23 24 24 26 28 28 32 37 42 46 48 48 48 46 47 50 47 44 41 37 35 36 37 39 43 45 46 47 51 55 58 60 61
25 28 32 37 43 46 49 50 50 50 51 51 50 47 41 38 35 30 29 28 27 26 28 30 32 36 39 44 46 51 55 60 63
43 44 46 48 49 50 50 50 50 51 52 53 53 50 41 28 27 29 32 31 32 31 33 37 39 40 39 40 41 44 49 51 54
47 48 49 49 49 49 50 50 50 50 51 53 53 53 42 29 31 33 38 39 38 39 40 39 38 36 37 41 44 47 48 50 50
47 48 49 48 48 48 48 48 48 49 50 52 53 53 47 31 34 42 43 47 47 48 52 52 49 42 30 26 40 52 54 56 57
46 47 47 47 47 47 47 48 48 49 50 52 52 52 52 34 34 43 50 54 57 59 63 66 63 56 35 27 26 33 44 54 61
45 46 46 46 46 46 46 47 47 48 49 51 52 51 54 37 38 45 51 59 71 73 75 76 75 67 36 31 35 32 44 54 76
43 43 44 44 44 45 45 46 46 48 50 50 52 51 56 40 42 48 56 71 78 79 77 77 80 77 45 33 36 40 59 62 71
48 44 44 45 46 46 46 47 48 51 52 51 50 52 56 42 44 53 64 77 82 85 84 83 87 81 54 32 37 38 58 73 62
66 63 62 60 58 56 55 56 56 55 54 54 51 57 58 47 47 55 73 82 84 86 91 91 93 84 48 29 34 35 53 63 79
63 68 78 79 76 72 73 68 61 60 58 55 60 68 64 51 50 62 74 77 82 84 91 94 95 84 40 32 39 38 44 54 76
89 79 86 84 94 91 89 86 76 74 69 66 68 72 70 70 75 75 84 76 83 97 93 100 90 51 33 36 39 45 36 58 62

GFSFLT1_700_rhum_108.txt.gz
RH
8 8 8 8 10 20 21 21 24 27 31 29 22 20 20 19 20 20 20 22 23 24 25 25 24 23 23 23 24 24 26 26 27
12 10 11 18 21 21 22 26 30 30 24 20 21 22 22 24 25 27 27 26 27 27 26 25 25 25 25 26 26 26 26 26 27
20 20 21 21 22 24 28 31 27 22 22 23 23 23 24 25 26 26 27 26 27 27 28 28 28 29 29 30 29 29 29 30 31
20 20 21 23 27 31 30 24 22 24 26 26 30 30 31 33 32 33 34 33 34 35 34 35 35 35 34 34 34 34 34 35 36
21 23 25 28 31 28 24 25 26 26 34 40 42 42 42 44 40 40 40 41 42 44 44 46 46 47 48 47 47 48 47 45 44
26 25 25 29 26 24 26 29 32 33 34 39 38 39 37 38 39 40 41 41 41 41 41 42 43 44 45 48 51 52 54 54 56
26 27 26 24 25 27 30 32 33 35 36 40 44 46 48 47 46 45 43 41 39 38 39 40 41 43 45 45 48 50 52 56 58
24 26 24 24 27 28 31 33 34 37 39 40 46 48 45 44 43 39 36 33 32 31 32 35 38 40 41 43 46 50 53 55 57
23 25 26 27 28 28 31 36 40 42 44 43 40 45 42 39 35 30 28 27 25 24 28 30 31 33 35 38 41 44 48 54 59
21 22 23 26 34 43 49 51 52 52 53 53 50 44 36 33 28 28 30 30 30 30 31 35 38 38 38 40 41 43 44 47 48
22 28 38 46 50 51 51 52 52 52 52 53 54 52 43 32 30 32 36 37 35 37 39 40 37 34 30 28 32 38 43 48 50
38 43 48 50 50 51 51 51 51 50 50 52 53 54 53 38 30 39 41 42 44 45 49 52 54 50 46 31 26 28 42 49 53
44 47 49 49 50 50 50 50 50 50 50 51 52 53 53 52 30 35 45 50 52 55 60 65 69 70 64 43 29 30 32 39 50
46 47 48 49 49 49 49 49 48 49 49 50 51 53 52 54 41 33 41 50 58 70 76 77 74 73 73 65 30 34 45 57 65
45 46 47 48 48 48 47 47 47 48 48 48 50 52 52 52 52 36 40 48 59 74 76 78 77 76 80 80 49 32 71 65 74
44 45 46 46 46 46 46 46 46 46 46 48 49 51 52 52 56 40 42 47 56 71 78 84 86 82 86 89 61 32 36 75 75
43 44 45 44 44 44 44 44 45 45 47 48 51 52 52 52 58 46 46 47 55 71 75 80 86 86 98 96 59 33 38 36 55
65 56 58 73 66 61 57 55 56 57 56 54 56 55 53 55 60 51 50 53 58 72 72 77 77 76 99 98 52 41 38 46 46
78 80 77 83 78 72 83 90 84 77 73 66 62 59 55 62 65 60 55 66 70 80 74 68 70 73 100 80 40 41 39 43 36
78 81 82 88 89 91 91 96 100 97 82 92 90 68 60 64 68 65 65 78 79 73 66 66 73 80 99 70 48 52 44 46 30

GFSFLT1_700_rhum_111.txt.gz
RH
14 24 32 10 8 20 20 22 24 25 27 24 19 18 19 19 19 21 24 26 26 26 26 24 24 24 24 24 24 24 24 24 24
8 10 8 10 20 21 23 25 27 26 20 19 20 22 23 24 26 26 27 27 26 26 26 26 26 27 27 27 27 27 27 28 29
9 9 14 21 21 23 26 28 24 20 20 21 21 21 24 26 27 27 28 28 28 29 29 29 30 30 31 31 32 32 32 34 35
17 20 21 20 23 26 27 22 21 23 24 25 26 27 30 33 32 34 35 36 37 38 39 40 41 41 42 42 44 44 44 43 45
21 21 21 23 26 24 21 24 24 26 28 32 34 35 34 34 32 32 33 34 35 36 37 38 40 40 42 42 43 46 48 48 51
21 23 24 26 24 21 22 25 29 30 31 32 34 35 36 38 38 38 38 38 37 36 37 38 38 41 42 43 43 45 46 47 50
24 25 25 23 23 23 26 28 30 35 36 39 43 44 43 38 35 32 31 32 31 32 33 36 38 39 39 39 39 42 44 45 50
23 22 21 23 25 26 28 30 32 37 41 43 42 40 38 33 30 30 28 26 24 25 28 30 31 32 34 36 37 38 37 38 44
22 23 23 25 26 28 28 32 34 39 42 43 38 36 34 29 27 28 28 28 28 28 31 33 34 33 31 28 30 35 38 41 43
22 23 24 24 26 36 47 52 53 54 55 55 54 48 33 27 27 29 33 33 34 34 38 37 34 32 31 25 22 23 28 38 42
22 22 22 32 44 51 53 53 53 53 53 54 55 55 53 32 28 34 35 36 38 38 43 47 54 55 53 45 28 25 25 30 35
21 23 36 46 50 52 52 52 52 52 52 52 53 54 54 53 33 30 39 43 44 47 53 62 68 66 64 58 48 28 29 29 34
26 37 45 49 51 51 51 51 51 51 50 51 52 53 54 54 53 34 33 40 46 53 66 70 75 72 70 69 69 44 46 60 59
36 41 45 48 50 50 50 50 50 50 49 50 50 51 52 53 54 49 35 38 47 55 68 69 73 78 77 76 74 66 62 73 72
37 42 44 46 48 49 50 50 49 48 48 48 49 49 51 52 53 55 43 40 48 54 66 72 74 79 79 74 69 64 42 57 85
38 41 42 44 47 49 49 48 47 47 47 47 46 47 49 51 53 54 54 42 45 49 58 74 80 78 76 70 49 59 40 65 66
40 42 44 46 46 47 46 46 45 45 45 45 46 47 49 52 54 53 58 48 44 50 57 71 82 84 78 70 93 61 41 34 35
53 51 48 47 48 53 60 66 59 60 66 68 62 55 54 57 56 54 59 58 50 54 56 72 81 82 75 79 78 98 51 44 36
77 65 66 66 66 80 75 81 86 83 83 93 96 86 74 67 60 63 60 64 64 73 72 77 84 86 86 82 93 98 50 49 44
75 82 90 93 90 99 94 95 99 100 98 99 99 97 95 84 95 92 70 71 76 80 99 86 85 88 84 81 81 99 40 48 54

GFSFLT1_700_rhum_114.txt.gz
RH
28 52 58 21 8 20 20 21 22 25 25 20 18 18 18 18 21 23 22 22 22 22 23 24 24 25 24 25 25 25 26 27 28
19 33 18 8 19 20 21 23 24 22 18 18 19 21 22 23 24 25 24 23 23 24 25 26 27 26 28 28 29 30 32 33 34
11 12 8 18 21 22 23 24 21 18 20 21 21 22 22 23 25 26 26 25 26 27 31 34 35 35 36 36 37 39 40 41 41
10 9 18 21 22 25 26 20 19 20 21 23 24 25 25 29 31 31 32 31 31 32 34 35 36 36 38 38 38 39 39 40 42
13 19 21 22 27 25 20 20 21 22 24 28 30 31 30 30 30 31 33 33 34 33 33 35 36 36 36 37 38 38 37 40 42
20 21 22 26 27 20 21 22 24 26 27 29 32 35 35 35 35 34 32 30 29 29 30 33 34 33 34 33 33 33 34 38 42
20 22 24 25 21 23 23 26 26 28 31 35 38 38 34 30 27 25 25 24 22 24 25 27 29 30 32 31 30 31 34 36 40
21 21 20 20 21 24 27 28 30 33 34 34 31 31 29 26 25 24 23 22 24 25 29 32 32 27 20 18 19 23 28 34 36
22 21 20 22 23 25 28 32 34 34 32 32 30 29 27 25 26 28 28 28 28 28 31 29 28 29 33 30 21 20 20 23 32
22 21 21 22 22 24 28 38 46 52 54 54 52 47 31 26 28 29 33 33 33 34 41 44 51 55 53 49 39 23 22 22 24
22 21 22 23 27 42 51 54 55 55 55 56 56 56 54 44 27 34 38 40 40 43 48 56 64 68 61 55 50 39 22 26 29
23 23 23 30 46 52 53 54 54 53 53 53 54 55 56 55 53 34 30 36 42 48 55 66 71 72 69 66 62 52 34 50 60
24 23 29 43 51 53 53 53 52 52 52 51 52 52 53 54 54 54 42 33 38 45 52 63 69 74 76 75 73 61 55 44 62
21 26 38 47 51 52 52 52 52 52 51 50 50 50 51 52 54 54 54 46 36 41 49 57 68 76 78 76 74 75 70 51 64
23 32 43 47 49 50 50 50 51 51 50 49 49 49 49 49 51 53 54 55 44 40 45 52 62 74 80 76 76 75 81 42 74
27 34 41 45 46 46 48 50 50 50 48 48 47 47 46 46 48 51 53 55 52 46 47 52 60 76 81 76 78 82 82 70 43
31 34 38 41 43 45 47 49 48 47 47 47 47 48 50 49 49 51 54 54 56 51 50 53 62 62 78 86 82 83 75 75 80
36 38 40 42 45 48 52 68 77 77 77 81 73 74 79 73 78 66 60 56 56 59 56 59 69 75 87 91 95 98 95 82 84
44 46 47 50 67 78 73 61 84 91 94 86 95 98 96 97 96 93 75 64 68 86 87 65 73 89 98 100 93 90 99 100 98
76 74 84 73 88 87 81 94 84 96 94 91 98 80 98 97 99 99 93 90 91 99 88 85 86 88 99 99 95 79 54 52 74

GFSFLT1_700_rhum_117.txt.gz
RH
60 64 79 59 8 18 19 19 21 21 21 18 18 18 17 18 22 23 22 20 20 21 21 22 22 24 24 25 26 27 29 29 30
44 65 65 10 15 20 20 22 22 20 16 17 17 19 21 22 23 23 22 22 22 23 23 24 27 28 29 31 32 33 33 35 36
28 53 16 11 21 21 23 23 19 16 17 19 19 20 21 22 24 25 25 25 27 30 30 31 30 30 30 30 30 32 32 34 35
24 15 10 20 21 24 24 20 17 18 18 20 21 21 22 26 29 31 31 30 30 29 30 30 30 30 30 29 29 29 30 30 32
15 9 21 22 23 26 21 18 18 19 21 22 24 26 28 29 30 32 32 30 28 26 28 29 29 28 27 27 26 26 28 28 30
10 18 22 24 26 22 19 20 20 22 24 27 28 30 33 34 33 29 26 24 23 23 24 25 26 27 26 24 24 24 24 27 29
17 22 24 26 24 20 20 22 24 26 28 31 34 34 32 28 25 24 21 19 22 26 29 29 27 20 15 14 13 13 15 18 21
21 23 26 25 20 21 23 25 26 30 32 32 29 28 26 25 24 23 22 23 23 25 24 22 20 24 29 29 20 15 15 16 18
21 24 25 21 21 23 24 26 28 30 29 28 28 25 24 24 27 28 28 27 28 30 36 38 44 52 52 46 38 28 17 16 17
24 25 22 22 23 24 25 29 31 36 43 44 39 32 26 26 28 30 31 31 32 35 40 46 54 61 61 57 49 43 31 22 28
26 22 21 22 25 26 29 39 50 54 56 56 56 55 53 48 33 28 31 35 38 42 47 55 62 65 66 64 59 53 42 42 44
27 22 21 22 23 31 46 52 55 55 55 55 55 55 55 54 53 50 40 31 33 39 45 51 60 64 69 70 66 64 56 52 36
27 24 23 21 33 45 52 54 54 54 53 53 52 52 53 54 54 55 54 50 39 36 40 47 55 66 68 74 73 70 72 64 45
25 24 23 32 45 52 54 53 53 53 52 52 51 50 50 51 51 53 54 55 53 44 40 46 52 56 57 66 75 76 84 83 54
24 24 26 42 51 53 53 52 52 52 52 51 50 49 49 49 49 49 50 53 55 54 46 46 51 51 54 56 64 73 80 87 82
23 22 32 45 51 51 50 50 51 51 51 50 49 48 47 46 46 46 48 50 54 55 55 48 50 53 61 61 64 68 78 81 84
27 26 33 42 45 47 48 48 49 52 50 53 68 68 64 58 64 69 76 64 61 56 57 56 54 60 67 74 78 76 86 82 79
34 32 32 37 41 44 46 47 51 55 71 77 79 70 74 90 88 82 90 93 93 63 60 61 63 76 73 71 82 93 94 94 100
34 34 36 38 41 44 49 52 67 75 73 61 86 87 97 94 82 87 93 99 100 88 70 71 82 97 97 81 90 86 99 99 65
38 38 40 42 48 54 61 77 76 85 86 84 79 91 88 89 87 88 95 100 94 98 94 92 94 99 95 98 99 100 100 82 68